DW3267 Weather Reports


Display with metric or nautical units.
time (UTC)temp
F
wind
direction
speed
MPH
gust
MPH
rain 1hr
in
rain 24hr
in
rain mn
in
humidity
%
barometer
mb
20260508203000 75 342 3.0 4.0 0.00 0.00 0.00 18 1014.0
20260508202758 75 332 2.0 4.0 0.00 0.00 0.00 21 1014.0
20260508202658 75 329 2.0 4.0 0.00 0.00 0.00 19 1014.0
20260508202558 74 333 2.0 4.0 0.00 0.00 0.00 21 1014.0
20260508202358 74 331 1.0 7.0 0.00 0.00 0.00 18 1014.0
20260508202258 74 348 0.0 7.0 0.00 0.00 0.00 19 1014.0
20260508202058 74 329 1.0 8.0 0.00 0.00 0.00 19 1014.0
20260508201858 75 334 1.0 8.0 0.00 0.00 0.00 18 1014.0
20260508201758 75 290 0.0 8.0 0.00 0.00 0.00 17 1014.1
20260508201658 75 234 1.0 8.0 0.00 0.00 0.00 18 1014.1
20260508201500 75 226 5.0 8.0 0.00 0.00 0.00 20 1014.0
20260508201358 75 237 5.0 8.0 0.00 0.00 0.00 21 1014.0
20260508201257 75 272 6.0 8.0 0.00 0.00 0.00 21 1014.0
20260508201158 75 268 4.0 8.0 0.00 0.00 0.00 21 1014.1
20260508201058 75 255 1.0 7.0 0.00 0.00 0.00 20 1014.0
20260508200959 74 228 5.0 7.0 0.00 0.00 0.00 22 1014.0
20260508200858 74 198 4.0 7.0 0.00 0.00 0.00 20 1014.0
20260508200757 74 244 4.0 7.0 0.00 0.00 0.00 18 1014.0
20260508200659 74 246 3.0 7.0 0.00 0.00 0.00 20 1014.1
20260508200558 74 211 4.0 7.0 0.00 0.00 0.00 20 1014.0
20260508200458 74 316 2.0 7.0 0.00 0.00 0.00 21 1014.0
20260508200359 74 308 3.0 7.0 0.00 0.00 0.00 20 1014.0
20260508200258 74 320 3.0 7.0 0.00 0.00 0.00 20 1014.1
20260508200158 74 336 2.0 7.0 0.00 0.00 0.00 20 1014.0
20260508200059 74 250 5.0 7.0 0.00 0.00 0.00 20 1014.1
20260508195857 74 294 1.0 6.0 0.00 0.00 0.00 20 1014.1
20260508195757 74 338 1.0 7.0 0.00 0.00 0.00 20 1014.1
20260508195658 74 286 4.0 7.0 0.00 0.00 0.00 20 1014.0
20260508195558 74 331 1.0 7.0 0.00 0.00 0.00 21 1014.1
20260508195459 74 251 4.0 7.0 0.00 0.00 0.00 21 1014.1
20260508195358 74 327 2.0 8.0 0.00 0.00 0.00 20 1014.1
20260508195258 74 315 2.0 8.0 0.00 0.00 0.00 20 1014.1
20260508195158 74 250 1.0 8.0 0.00 0.00 0.00 24 1014.1
20260508195058 74 313 3.0 8.0 0.00 0.00 0.00 24 1014.1
20260508194958 74 252 2.0 8.0 0.00 0.00 0.00 20 1014.1
20260508194858 74 280 1.0 8.0 0.00 0.00 0.00 19 1014.1
20260508194758 74 271 2.0 8.0 0.00 0.00 0.00 20 1014.1
20260508194657 74 250 1.0 8.0 0.00 0.00 0.00 22 1014.1
20260508194558 74 298 5.0 8.0 0.00 0.00 0.00 20 1014.0
20260508194459 74 284 8.0 8.0 0.00 0.00 0.00 19 1014.1
20260508194358 74 309 2.0 8.0 0.00 0.00 0.00 20 1014.1
20260508194257 74 236 5.0 8.0 0.00 0.00 0.00 21 1014.1
20260508194158 74 299 2.0 8.0 0.00 0.00 0.00 19 1014.1
20260508194059 74 197 2.0 8.0 0.00 0.00 0.00 20 1014.1
20260508193958 74 263 4.0 8.0 0.00 0.00 0.00 20 1014.1
20260508193857 74 273 4.0 8.0 0.00 0.00 0.00 20 1014.1
20260508193758 74 208 6.0 8.0 0.00 0.00 0.00 22 1014.1
20260508193657 74 227 2.0 6.0 0.00 0.00 0.00 22 1014.1
20260508193558 74 190 4.0 6.0 0.00 0.00 0.00 21 1014.2
20260508193358 74 337 1.0 4.0 0.00 0.00 0.00 21 1014.2
20260508193258 74 344 2.0 5.0 0.00 0.00 0.00 22 1014.2
20260508193158 74 238 1.0 5.0 0.00 0.00 0.00 25 1014.2
20260508193059 74 263 3.0 6.0 0.00 0.00 0.00 21 1014.2
20260508192959 74 302 1.0 7.0 0.00 0.00 0.00 22 1014.2
20260508192858 74 336 2.0 7.0 0.00 0.00 0.00 22 1014.2
20260508192758 74 304 2.0 7.0 0.00 0.00 0.00 23 1014.2
20260508192659 74 305 3.0 12.0 0.00 0.00 0.00 22 1014.2
20260508192558 74 274 1.0 12.0 0.00 0.00 0.00 24 1014.1
20260508192458 74 311 3.0 12.0 0.00 0.00 0.00 21 1014.2
20260508192358 74 343 0.0 12.0 0.00 0.00 0.00 21 1014.2
20260508192257 74 19 2.0 12.0 0.00 0.00 0.00 22 1014.3
20260508192058 74 324 4.0 12.0 0.00 0.00 0.00 21 1014.2
20260508191958 74 205 5.0 12.0 0.00 0.00 0.00 20 1014.2
20260508191858 74 234 3.0 12.0 0.00 0.00 0.00 21 1014.3
20260508191757 75 200 10.0 10.0 0.00 0.00 0.00 20 1014.3
20260508191658 75 236 5.0 8.0 0.00 0.00 0.00 20 1014.3
20260508191558 75 233 4.0 6.0 0.00 0.00 0.00 21 1014.3
20260508191457 74 230 5.0 11.0 0.00 0.00 0.00 20 1014.3
20260508191258 74 316 1.0 11.0 0.00 0.00 0.00 21 1014.3
20260508191158 74 9 0.0 11.0 0.00 0.00 0.00 20 1014.3
20260508191057 74 29 2.0 11.0 0.00 0.00 0.00 20 1014.3
20260508190858 74 279 1.0 11.0 0.00 0.00 0.00 18 1014.3
20260508190757 74 20 1.0 11.0 0.00 0.00 0.00 25 1014.4
20260508190658 74 355 2.0 11.0 0.00 0.00 0.00 21 1014.3
20260508190557 74 207 9.0 12.0 0.00 0.00 0.00 20 1014.3
20260508190459 74 227 8.0 8.0 0.00 0.00 0.00 21 1014.3
20260508190357 74 187 8.0 8.0 0.00 0.00 0.00 22 1014.3
20260508190058 74 283 3.0 7.0 0.00 0.00 0.00 20 1014.3
20260508190002 74 258 2.0 7.0 0.00 0.00 0.00 19 1014.3
20260508185857 74 203 7.0 7.0 0.00 0.00 0.00 20 1014.2
20260508185757 74 196 3.0 7.0 0.00 0.00 0.00 20 1014.3
20260508185658 74 233 5.0 7.0 0.00 0.00 0.00 21 1014.3
20260508185558 74 234 6.0 7.0 0.00 0.00 0.00 19 1014.4
20260508185458 74 170 5.0 7.0 0.00 0.00 0.00 22 1014.4
20260508185357 74 249 4.0 7.0 0.00 0.00 0.00 21 1014.3
20260508185257 74 213 3.0 7.0 0.00 0.00 0.00 20 1014.3
20260508185100 73 243 4.0 5.0 0.00 0.00 0.00 24 1014.4
20260508184959 73 200 1.0 5.0 0.00 0.00 0.00 20 1014.4
20260508184858 73 355 1.0 5.0 0.00 0.00 0.00 24 1014.4
20260508184800 73 237 4.0 5.0 0.00 0.00 0.00 24 1014.4
20260508184658 73 265 3.0 5.0 0.00 0.00 0.00 22 1014.4
20260508184557 73 332 1.0 5.0 0.00 0.00 0.00 21 1014.4
20260508184458 73 328 2.0 7.0 0.00 0.00 0.00 22 1014.5
20260508184358 73 308 3.0 7.0 0.00 0.00 0.00 22 1014.4
20260508184258 73 335 2.0 7.0 0.00 0.00 0.00 23 1014.4
20260508184157 73 323 2.0 7.0 0.00 0.00 0.00 22 1014.5
20260508184058 73 5 0.0 7.0 0.00 0.00 0.00 21 1014.5
20260508183958 73 336 2.0 8.0 0.00 0.00 0.00 25 1014.5
20260508183858 72 328 3.0 8.0 0.00 0.00 0.00 22 1014.5
20260508183757 72 330 1.0 8.0 0.00 0.00 0.00 21 1014.5
20260508183558 72 280 5.0 9.0 0.00 0.00 0.00 22 1014.5
20260508183458 72 281 2.0 9.0 0.00 0.00 0.00 22 1014.5
20260508183358 72 290 2.0 9.0 0.00 0.00 0.00 23 1014.5
20260508183157 72 271 2.0 9.0 0.00 0.00 0.00 22 1014.5
20260508183058 72 219 5.0 9.0 0.00 0.00 0.00 21 1014.6
20260508182857 73 205 5.0 9.0 0.00 0.00 0.00 24 1014.5
20260508182757 73 209 2.0 9.0 0.00 0.00 0.00 23 1014.6
20260508182658 73 192 4.0 9.0 0.00 0.00 0.00 23 1014.5
20260508182558 73 181 2.0 7.0 0.00 0.00 0.00 24 1014.5
20260508182358 73 274 3.0 7.0 0.00 0.00 0.00 24 1014.6
20260508182258 73 219 3.0 7.0 0.00 0.00 0.00 25 1014.6
20260508182157 73 331 1.0 7.0 0.00 0.00 0.00 27 1014.6
20260508182058 73 312 3.0 7.0 0.00 0.00 0.00 24 1014.6
20260508181958 73 282 3.0 6.0 0.00 0.00 0.00 25 1014.6
20260508181857 73 274 1.0 7.0 0.00 0.00 0.00 26 1014.6
20260508181758 73 328 2.0 7.0 0.00 0.00 0.00 27 1014.7
20260508181658 73 297 1.0 7.0 0.00 0.00 0.00 27 1014.6
20260508181558 73 221 2.0 7.0 0.00 0.00 0.00 24 1014.6
20260508181459 73 190 4.0 7.0 0.00 0.00 0.00 24 1014.6
20260508181358 73 231 1.0 7.0 0.00 0.00 0.00 24 1014.6
20260508181157 73 141 2.0 7.0 0.00 0.00 0.00 22 1014.7
20260508181058 73 205 2.0 7.0 0.00 0.00 0.00 25 1014.7
20260508180858 73 312 1.0 5.0 0.00 0.00 0.00 25 1014.7
20260508180758 72 343 2.0 5.0 0.00 0.00 0.00 23 1014.7
20260508180657 72 338 2.0 5.0 0.00 0.00 0.00 24 1014.7
20260508180558 72 307 2.0 5.0 0.00 0.00 0.00 25 1014.8
20260508180458 72 344 2.0 5.0 0.00 0.00 0.00 26 1014.7
20260508180157 72 332 2.0 5.0 0.00 0.00 0.00 22 1014.7
20260508180057 72 254 3.0 5.0 0.00 0.00 0.00 24 1014.8
20260508180001 72 261 1.0 5.0 0.00 0.00 0.00 23 1014.8
20260508175858 72 128 1.0 5.0 0.00 0.00 0.00 23 1014.8
20260508175758 72 17 0.0 5.0 0.00 0.00 0.00 24 1014.8
20260508175657 72 47 0.0 5.0 0.00 0.00 0.00 22 1014.8
20260508175557 72 80 3.0 5.0 0.00 0.00 0.00 21 1014.8
20260508175458 72 109 3.0 5.0 0.00 0.00 0.00 25 1014.8
20260508175258 72 55 4.0 5.0 0.00 0.00 0.00 22 1014.8
20260508175157 71 39 3.0 5.0 0.00 0.00 0.00 22 1014.9
20260508175059 71 22 3.0 5.0 0.00 0.00 0.00 21 1014.9
20260508174858 71 71 2.0 8.0 0.00 0.00 0.00 22 1014.8
20260508174458 71 209 3.0 8.0 0.00 0.00 0.00 23 1014.9
20260508174357 71 150 2.0 8.0 0.00 0.00 0.00 24 1014.9
20260508174258 71 198 4.0 8.0 0.00 0.00 0.00 23 1014.8
20260508174157 71 241 2.0 8.0 0.00 0.00 0.00 22 1014.8
20260508174059 71 242 4.0 6.0 0.00 0.00 0.00 24 1014.9
20260508173958 71 290 3.0 6.0 0.00 0.00 0.00 25 1014.9
20260508173858 71 265 1.0 6.0 0.00 0.00 0.00 21 1014.9
20260508173758 71 236 1.0 6.0 0.00 0.00 0.00 25 1014.9
20260508173657 71 239 0.0 6.0 0.00 0.00 0.00 26 1014.9
20260508173558 71 271 3.0 6.0 0.00 0.00 0.00 22 1014.8
20260508173357 71 157 3.0 6.0 0.00 0.00 0.00 22 1014.9
20260508173258 71 202 5.0 6.0 0.00 0.00 0.00 21 1014.9
20260508173158 71 182 1.0 6.0 0.00 0.00 0.00 21 1014.9
20260508173058 71 199 2.0 6.0 0.00 0.00 0.00 21 1014.9
20260508172958 71 267 1.0 4.0 0.00 0.00 0.00 23 1014.9
20260508172858 71 336 1.0 4.0 0.00 0.00 0.00 24 1014.9
20260508172759 71 293 3.0 5.0 0.00 0.00 0.00 21 1014.9
20260508172658 70 229 3.0 5.0 0.00 0.00 0.00 21 1014.9
20260508172458 70 266 1.0 7.0 0.00 0.00 0.00 22 1014.9
20260508172358 70 199 3.0 7.0 0.00 0.00 0.00 23 1014.9
20260508172258 70 242 2.0 7.0 0.00 0.00 0.00 25 1014.9
20260508172057 71 277 3.0 7.0 0.00 0.00 0.00 24 1014.9
20260508171959 71 219 2.0 7.0 0.00 0.00 0.00 24 1014.9
20260508171858 71 211 3.0 7.0 0.00 0.00 0.00 20 1014.9
20260508171758 72 236 4.0 7.0 0.00 0.00 0.00 21 1014.9
20260508171657 72 209 3.0 6.0 0.00 0.00 0.00 20 1014.9
20260508171558 72 246 3.0 6.0 0.00 0.00 0.00 22 1014.9
20260508171457 72 267 3.0 4.0 0.00 0.00 0.00 22 1014.9
20260508171357 72 198 2.0 4.0 0.00 0.00 0.00 22 1014.9
20260508171259 72 238 2.0 4.0 0.00 0.00 0.00 22 1014.9
20260508171158 72 225 3.0 3.0 0.00 0.00 0.00 24 1014.9
20260508171057 72 227 1.0 3.0 0.00 0.00 0.00 21 1014.9
20260508170958 72 15 1.0 4.0 0.00 0.00 0.00 21 1014.9
20260508170858 71 32 1.0 4.0 0.00 0.00 0.00 22 1014.9
20260508170757 71 355 1.0 4.0 0.00 0.00 0.00 25 1014.9
20260508170557 71 270 2.0 4.0 0.00 0.00 0.00 22 1014.9
20260508170458 71 259 3.0 4.0 0.00 0.00 0.00 25 1014.9
20260508170358 71 257 0.0 4.0 0.00 0.00 0.00 24 1014.9
20260508170057 70 260 3.0 4.0 0.00 0.00 0.00 28 1014.9
20260508165859 70 218 3.0 4.0 0.00 0.00 0.00 22 1014.9
20260508165800 70 24 0.0 4.0 0.00 0.00 0.00 23 1014.9
20260508165659 70 355 1.0 4.0 0.00 0.00 0.00 24 1014.8
20260508165600 70 330 0.0 4.0 0.00 0.00 0.00 24 1014.9
20260508165500 69 330 1.0 4.0 0.00 0.00 0.00 24 1014.9
20260508165400 69 330 2.0 655.0 1.79 0.00 0.00 24
20260508165258 69 187 2.0 3.0 0.00 0.00 0.00 24 1015.0
20260508165159 69 223 0.0 3.0 0.00 0.00 0.00 22 1014.9
20260508165058 69 271 1.0 3.0 0.00 0.00 0.00 25 1014.9
20260508165000 69 267 1.0 3.0 0.00 0.00 0.00 24 1014.9
20260508164859 69 277 2.0 3.0 0.00 0.00 0.00 26 1014.9
20260508164758 69 191 2.0 3.0 0.00 0.00 0.00 22 1015.0
20260508164501 69 293 0.0 3.0 0.00 0.00 0.00 22 1014.9
20260508164359 69 298 1.0 3.0 0.00 0.00 0.00 23 1014.9
20260508164300 69 309 0.0 3.0 0.00 0.00 0.00 22 1015.0
20260508164159 69 281 0.0 3.0 0.00 0.00 0.00 23 1015.0
20260508164100 69 302 0.0 3.0 0.00 0.00 0.00 25 1014.9
20260508163859 69 310 2.0 3.0 0.00 0.00 0.00 24 1014.9
20260508163759 69 334 1.0 3.0 0.00 0.00 0.00 24 1014.9
20260508163559 68 325 2.0 3.0 0.00 0.00 0.00 25 1014.9
20260508163500 68 269 1.0 4.0 0.00 0.00 0.00 26 1014.9
20260508163259 68 197 1.0 4.0 0.00 0.00 0.00 25 1014.9
20260508163159 68 201 1.0 4.0 0.00 0.00 0.00 26 1014.9
20260508163100 68 241 3.0 4.0 0.00 0.00 0.00 28 1014.9
20260508162859 67 132 1.0 4.0 0.00 0.00 0.00 25 1014.9
20260508162759 67 103 1.0 4.0 0.00 0.00 0.00 26 1014.9
20260508162658 67 174 2.0 4.0 0.00 0.00 0.00 26 1014.9
20260508162558 67 167 3.0 4.0 0.00 0.00 0.00 25 1014.9
20260508162500 67 205 0.0 3.0 0.00 0.00 0.00 24 1014.9
20260508162359 67 192 1.0 3.0 0.00 0.00 0.00 28 1014.9
20260508162259 67 220 2.0 3.0 0.00 0.00 0.00 26 1014.9
20260508162159 67 225 1.0 3.0 0.00 0.00 0.00 26 1014.9
20260508162100 67 217 3.0 3.0 0.00 0.00 0.00 28 1014.9
20260508161959 67 178 1.0 3.0 0.00 0.00 0.00 27 1014.9
20260508161859 67 178 0.0 3.0 0.00 0.00 0.00 25 1014.9
20260508161800 67 271 1.0 3.0 0.00 0.00 0.00 27 1014.9
20260508161659 67 195 1.0 3.0 0.00 0.00 0.00 28 1014.9
20260508161559 67 249 1.0 3.0 0.00 0.00 0.00 29 1014.9
20260508161358 66 216 0.0 3.0 0.00 0.00 0.00 26 1014.9
20260508161259 66 216 1.0 3.0 0.00 0.00 0.00 27 1014.8
20260508161200 66 216 1.0 3.0 0.00 0.00 0.00 26 1014.9
20260508161059 66 215 2.0 3.0 0.00 0.00 0.00 27 1014.9
20260508161000 66 241 2.0 3.0 0.00 0.00 0.00 26 1014.9
20260508160859 66 213 2.0 3.0 0.00 0.00 0.00 28 1014.9
20260508160759 66 179 1.0 2.0 0.00 0.00 0.00 29 1014.8
20260508160659 66 179 2.0 3.0 0.00 0.00 0.00 28 1014.8
20260508160559 66 203 1.0 3.0 0.00 0.00 0.00 26 1014.8
20260508160500 66 203 0.0 3.0 0.00 0.00 0.00 26 1014.9
20260508160359 66 203 0.0 3.0 0.00 0.00 0.00 25 1014.9
20260508160259 66 203 2.0 3.0 0.00 0.00 0.00 25 1014.8
20260508160159 66 195 1.0 3.0 0.00 0.00 0.00 25 1014.8
20260508160058 66 184 1.0 3.0 0.00 0.00 0.00 26 1014.8
20260508155658 65 196 0.0 3.0 0.00 0.00 0.00 26 1014.8
20260508155559 65 196 0.0 3.0 0.00 0.00 0.00 27 1014.8
20260508155358 65 196 0.0 3.0 0.00 0.00 0.00 33 1014.8
20260508155259 64 196 0.0 3.0 0.00 0.00 0.00 33 1014.8
20260508155158 64 196 1.0 3.0 0.00 0.00 0.00 29 1014.8
20260508155059 64 192 2.0 3.0 0.00 0.00 0.00 28 1014.8
20260508155000 64 204 2.0 3.0 0.00 0.00 0.00 28 1014.8
20260508154859 64 214 1.0 3.0 0.00 0.00 0.00 32 1014.8
20260508154758 64 219 2.0 3.0 0.00 0.00 0.00 32 1014.8
20260508154659 64 221 2.0 3.0 0.00 0.00 0.00 27 1014.8
20260508154559 64 210 0.0 4.0 0.00 0.00 0.00 27 1014.8
20260508154459 64 210 1.0 4.0 0.00 0.00 0.00 27 1014.8
20260508154400 64 215 0.0 4.0 0.00 0.00 0.00 28 1014.8
20260508154259 64 215 0.0 4.0 0.00 0.00 0.00 28 1014.8
20260508154159 64 215 1.0 4.0 0.00 0.00 0.00 28 1014.8
20260508154059 64 215 1.0 4.0 0.00 0.00 0.00 27 1014.8
20260508154000 64 210 1.0 4.0 0.00 0.00 0.00 28 1014.8
20260508153900 64 215 1.0 4.0 0.00 0.00 0.00 29 1014.8
20260508153759 64 180 1.0 4.0 0.00 0.00 0.00 29 1014.7
20260508153659 64 198 3.0 4.0 0.00 0.00 0.00 32 1014.8
20260508153601 65 189 2.0 4.0 0.00 0.00 0.00 32 1014.8
20260508153500 65 204 2.0 4.0 0.00 0.00 0.00 29 1014.7
20260508153359 65 215 3.0 3.0 0.00 0.00 0.00 29 1014.7
20260508153159 65 236 2.0 4.0 0.00 0.00 0.00 28 1014.7
20260508153059 64 190 2.0 4.0 0.00 0.00 0.00 28 1014.7
20260508152659 63 104 1.0 4.0 0.00 0.00 0.00 26 1014.7
20260508152559 63 82 0.0 4.0 0.00 0.00 0.00 27 1014.7
20260508152500 63 80 0.0 4.0 0.00 0.00 0.00 26 1014.7
20260508152359 63 84 1.0 4.0 0.00 0.00 0.00 26 1014.7
20260508152259 63 63 2.0 4.0 0.00 0.00 0.00 26 1014.8
20260508152159 62 70 2.0 4.0 0.00 0.00 0.00 27 1014.7
20260508152059 62 104 3.0 5.0 0.00 0.00 0.00 28 1014.8
20260508151859 62 74 2.0 5.0 0.00 0.00 0.00 29 1014.8
20260508151659 61 94 3.0 3.0 0.00 0.00 0.00 30 1014.8
20260508151559 61 89 2.0 4.0 0.00 0.00 0.00 34 1014.8
20260508151500 61 103 2.0 4.0 0.00 0.00 0.00 34 1014.8
20260508151359 61 130 1.0 4.0 0.00 0.00 0.00 33 1014.8
20260508151200 61 111 2.0 4.0 0.00 0.00 0.00 33 1014.8
20260508151058 60 161 2.0 4.0 0.00 0.00 0.00 32 1014.8
20260508150959 60 149 0.0 4.0 0.00 0.00 0.00 35 1014.8
20260508150900 60 149 2.0 4.0 0.00 0.00 0.00 34 1014.8
20260508150759 60 150 2.0 4.0 0.00 0.00 0.00 36 1014.8
20260508150659 60 157 2.0 4.0 0.00 0.00 0.00 34 1014.8
20260508150559 60 154 2.0 4.0 0.00 0.00 0.00 35 1014.8
20260508150459 60 153 1.0 4.0 0.00 0.00 0.00 36 1014.8
20260508150359 60 153 2.0 4.0 0.00 0.00 0.00 35 1014.8
20260508150200 59 153 2.0 4.0 0.00 0.00 0.00 37 1014.8
20260508150059 59 148 2.0 4.0 0.00 0.00 0.00 37 1014.8
20260508150002 59 153 0.0 4.0 0.00 0.00 0.00 37 1014.8
20260508145859 59 121 3.0 4.0 0.00 0.00 0.00 38 1014.7
20260508145759 59 147 2.0 4.0 0.00 0.00 0.00 37 1014.8
20260508145659 59 157 1.0 4.0 0.00 0.00 0.00 35 1014.7
20260508145558 59 151 3.0 4.0 0.00 0.00 0.00 35 1014.7
20260508145500 59 139 2.0 4.0 0.00 0.00 0.00 35 1014.7
20260508145400 59 148 1.0 4.0 0.00 0.00 0.00 35 1014.7
20260508145300 59 131 1.0 4.0 0.00 0.00 0.00 39 1014.6
20260508145159 59 126 1.0 4.0 0.00 0.00 0.00 37 1014.7
20260508145059 59 150 2.0 4.0 0.00 0.00 0.00 37 1014.7
20260508145000 59 172 0.0 4.0 0.00 0.00 0.00 38 1014.7
20260508144859 59 212 0.0 4.0 0.00 0.00 0.00 39 1014.6
20260508144800 58 212 1.0 4.0 0.00 0.00 0.00 36 1014.6
20260508144658 58 205 3.0 4.0 0.00 0.00 0.00 37 1014.6
20260508144559 58 209 3.0 4.0 0.00 0.00 0.00 39 1014.6
20260508144500 58 213 2.0 3.0 0.00 0.00 0.00 42 1014.6
20260508144358 58 207 2.0 3.0 0.00 0.00 0.00 39 1014.5
20260508144259 58 236 2.0 2.0 0.00 0.00 0.00 37 1014.6
20260508144159 58 219 0.0 0.0 0.00 0.00 0.00 35 1014.6
20260508144059 58 225 0.0 0.0 0.00 0.00 0.00 37 1014.6
20260508144000 58 225 0.0 0.0 0.00 0.00 0.00 43 1014.6
20260508143859 58 257 0.0 0.0 0.00 0.00 0.00 43 1014.5
20260508143759 58 264 0.0 0.0 0.00 0.00 0.00 43 1014.5
20260508143659 58 179 0.0 0.0 0.00 0.00 0.00 42 1014.5
20260508143559 58 179 0.0 0.0 0.00 0.00 0.00 38 1014.5
20260508143501 58 121 0.0 0.0 0.00 0.00 0.00 40 1014.5
20260508143359 58 121 0.0 0.0 0.00 0.00 0.00 41 1014.5
20260508143258 58 121 0.0 0.0 0.00 0.00 0.00 37 1014.5
20260508143200 57 117 0.0 0.0 0.00 0.00 0.00 37 1014.4
20260508143100 57 117 0.0 0.0 0.00 0.00 0.00 39 1014.4
20260508143000 57 117 0.0 0.0 0.00 0.00 0.00 39 1014.4
20260508142659 57 117 0.0 0.0 0.00 0.00 0.00 38 1014.4
20260508142559 57 90 0.0 0.0 0.00 0.00 0.00 38 1014.4
20260508142500 57 88 0.0 0.0 0.00 0.00 0.00 39 1014.4
20260508142159 56 89 0.0 0.0 0.00 0.00 0.00 38 1014.3
20260508142059 56 89 0.0 0.0 0.00 0.00 0.00 36 1014.3
20260508142000 56 89 0.0 0.0 0.00 0.00 0.00 39 1014.3
20260508141859 56 89 0.0 0.0 0.00 0.00 0.00 37 1014.2
20260508141759 56 89 0.0 0.0 0.00 0.00 0.00 37 1014.2
20260508141659 56 89 0.0 0.0 0.00 0.00 0.00 40 1014.3
20260508141559 56 89 0.0 0.0 0.00 0.00 0.00 41 1014.3
20260508141459 56 89 0.0 0.0 0.00 0.00 0.00 43 1014.2
20260508141259 55 89 0.0 0.0 0.00 0.00 0.00 41 1014.2
20260508141159 55 88 0.0 0.0 0.00 0.00 0.00 42 1014.2
20260508141059 55 89 0.0 0.0 0.00 0.00 0.00 42 1014.2
20260508140959 55 88 0.0 0.0 0.00 0.00 0.00 43 1014.2
20260508140859 55 89 0.0 0.0 0.00 0.00 0.00 40 1014.2
20260508140758 55 89 0.0 0.0 0.00 0.00 0.00 41 1014.2
20260508140559 55 89 0.0 0.0 0.00 0.00 0.00 41 1014.2
20260508140500 54 89 0.0 0.0 0.00 0.00 0.00 42 1014.1
20260508140259 54 89 0.0 0.0 0.00 0.00 0.00 44 1014.1
20260508140159 54 89 0.0 0.0 0.00 0.00 0.00 40 1014.1
20260508140059 54 89 0.0 0.0 0.00 0.00 0.00 43 1014.1
20260508135859 54 89 0.0 0.0 0.00 0.00 0.00 42 1014.1
20260508135759 54 89 0.0 2.0 0.00 0.00 0.00 41 1014.0
20260508135658 53 89 0.0 2.0 0.00 0.00 0.00 41 1014.0
20260508135500 53 88 0.0 2.0 0.00 0.00 0.00 41 1014.0
20260508135359 53 89 0.0 2.0 0.00 0.00 0.00 41 1014.0
20260508135059 53 88 0.0 2.0 0.00 0.00 0.00 39 1014.1
20260508135000 53 88 0.0 2.0 0.00 0.00 0.00 39 1014.0
20260508134859 53 88 0.0 2.0 0.00 0.00 0.00 39 1014.0
20260508134800 53 88 2.0 2.0 0.00 0.00 0.00 39 1014.0
20260508134559 52 82 2.0 3.0 0.00 0.00 0.00 41 1014.0
20260508134459 52 81 2.0 3.0 0.00 0.00 0.00 43 1013.9
20260508134359 52 75 1.0 3.0 0.00 0.00 0.00 42 1014.0
20260508134300 52 96 1.0 3.0 0.00 0.00 0.00 42 1014.0
20260508134200 52 96 0.0 3.0 0.00 0.00 0.00 43 1014.0
20260508134059 52 96 1.0 3.0 0.00 0.00 0.00 44 1014.0
20260508134000 52 94 0.0 3.0 0.00 0.00 0.00 44 1013.9
20260508133559 52 119 1.0 2.0 0.00 0.00 0.00 42 1013.9
20260508133500 52 119 0.0 2.0 0.00 0.00 0.00 43 1013.9
20260508133401 52 119 1.0 2.0 0.00 0.00 0.00 43 1013.9
20260508133259 52 119 0.0 2.0 0.00 0.00 0.00 43 1013.9
20260508133159 52 119 0.0 2.0 0.00 0.00 0.00 43 1013.9
20260508133101 52 119 2.0 2.0 0.00 0.00 0.00 43 1013.9
20260508132959 52 119 1.0 1.0 0.00 0.00 0.00 42 1013.9
20260508132859 52 119 0.0 1.0 0.00 0.00 0.00 43 1013.9
20260508132759 52 119 0.0 1.0 0.00 0.00 0.00 42 1013.9
20260508132659 52 119 0.0 3.0 0.00 0.00 0.00 42 1013.8
20260508132559 52 119 0.0 3.0 0.00 0.00 0.00 42 1013.9
20260508132459 52 119 1.0 3.0 0.00 0.00 0.00 42 1013.9
20260508132259 52 119 0.0 3.0 0.00 0.00 0.00 43 1013.9
20260508132159 52 119 0.0 3.0 0.00 0.00 0.00 43 1013.8
20260508132059 52 119 0.0 3.0 0.00 0.00 0.00 43 1013.8
20260508132000 52 119 1.0 3.0 0.00 0.00 0.00 43 1013.8
20260508131859 52 119 1.0 3.0 0.00 0.00 0.00 42 1013.8
20260508131759 52 121 2.0 2.0 0.00 0.00 0.00 43 1013.8
20260508131658 52 123 0.0 0.0 0.00 0.00 0.00 43 1013.8
20260508131459 52 123 0.0 0.0 0.00 0.00 0.00 42 1013.7
20260508131400 52 123 0.0 0.0 0.00 0.00 0.00 42 1013.7
20260508131300 52 123 0.0 0.0 0.00 0.00 0.00 42 1013.7
20260508131159 52 123 0.0 0.0 0.00 0.00 0.00 42 1013.7
20260508131059 52 123 0.0 0.0 0.00 0.00 0.00 41 1013.7
20260508130959 52 123 0.0 0.0 0.00 0.00 0.00 41 1013.7
20260508130858 52 123 0.0 0.0 0.00 0.00 0.00 42 1013.6
20260508130759 52 123 0.0 0.0 0.00 0.00 0.00 42 1013.7
20260508130659 52 123 0.0 0.0 0.00 0.00 0.00 42 1013.6
20260508130559 52 123 0.0 0.0 0.00 0.00 0.00 42 1013.6
20260508130500 52 123 0.0 0.0 0.00 0.00 0.00 41 1013.6
20260508130259 52 123 0.0 0.0 0.00 0.00 0.00 41 1013.5
20260508130058 52 123 0.0 0.0 0.00 0.00 0.00 41 1013.6
20260508130001 52 123 0.0 0.0 0.00 0.00 0.00 40 1013.6
20260508125800 52 126 0.0 1.0 0.00 0.00 0.00 40 1013.6
20260508125659 52 126 0.0 1.0 0.00 0.00 0.00 39 1013.6
20260508125559 52 126 0.0 1.0 0.00 0.00 0.00 39 1013.5
20260508125501 52 126 0.0 1.0 0.00 0.00 0.00 39 1013.6
20260508125400 52 126 0.0 2.0 0.00 0.00 0.00 39 1013.5
20260508125200 52 126 0.0 2.0 0.00 0.00 0.00 39 1013.5
20260508125059 52 126 0.0 2.0 0.00 0.00 0.00 39 1013.5
20260508124900 52 126 0.0 2.0 0.00 0.00 0.00 38 1013.5
20260508124759 52 126 0.0 2.0 0.00 0.00 0.00 38 1013.4
20260508124659 52 126 0.0 2.0 0.00 0.00 0.00 37 1013.4
20260508124600 52 126 0.0 2.0 0.00 0.00 0.00 36 1013.4
20260508124459 52 126 1.0 2.0 0.00 0.00 0.00 37 1013.4
20260508124359 53 126 0.0 2.0 0.00 0.00 0.00 37 1013.4
20260508124259 53 126 2.0 2.0 0.00 0.00 0.00 37 1013.4
20260508124200 53 126 1.0 2.0 0.00 0.00 0.00 37 1013.4
20260508124100 53 126 0.0 2.0 0.00 0.00 0.00 37 1013.4
20260508124000 53 126 0.0 2.0 0.00 0.00 0.00 36 1013.4
20260508123859 53 126 2.0 2.0 0.00 0.00 0.00 36 1013.4
20260508123758 53 126 1.0 2.0 0.00 0.00 0.00 36 1013.4
20260508123659 53 126 0.0 2.0 0.00 0.00 0.00 36 1013.4
20260508123459 53 126 0.0 2.0 0.00 0.00 0.00 36 1013.4
20260508123359 53 126 2.0 2.0 0.00 0.00 0.00 36 1013.3
20260508123300 53 129 0.0 2.0 0.00 0.00 0.00 37 1013.4
20260508123200 53 129 1.0 2.0 0.00 0.00 0.00 36 1013.4
20260508123105 53 128 0.0 2.0 0.00 0.00 0.00 36 1013.3
20260508122900 53 128 1.0 2.0 0.00 0.00 0.00 36 1013.3
20260508122658 53 130 0.0 2.0 0.00 0.00 0.00 36 1013.4
20260508122558 53 130 0.0 2.0 0.00 0.00 0.00 35 1013.3
20260508122500 53 130 0.0 2.0 0.00 0.00 0.00 36 1013.3
20260508122359 54 130 2.0 2.0 0.00 0.00 0.00 37 1013.3
20260508122200 54 121 1.0 3.0 0.00 0.00 0.00 36 1013.3
20260508122100 54 121 0.0 3.0 0.00 0.00 0.00 36 1013.3
20260508121959 54 120 2.0 3.0 0.00 0.00 0.00 36 1013.3
20260508121859 54 120 1.0 3.0 0.00 0.00 0.00 35 1013.3
20260508121758 54 120 1.0 3.0 0.00 0.00 0.00 35 1013.3
20260508121659 54 119 0.0 3.0 0.00 0.00 0.00 35 1013.3
20260508121559 54 119 0.0 3.0 0.00 0.00 0.00 34 1013.2
20260508121459 54 119 1.0 3.0 0.00 0.00 0.00 34 1013.2
20260508121359 54 104 1.0 3.0 0.00 0.00 0.00 34 1013.2
20260508121259 54 103 1.0 3.0 0.00 0.00 0.00 35 1013.2
20260508121159 54 119 0.0 2.0 0.00 0.00 0.00 33 1013.2
20260508121000 54 119 1.0 2.0 0.00 0.00 0.00 34 1013.2
20260508120859 54 119 0.0 2.0 0.00 0.00 0.00 33 1013.2
20260508120759 54 126 1.0 2.0 0.00 0.00 0.00 33 1013.2
20260508120659 54 126 1.0 2.0 0.00 0.00 0.00 34 1013.2
20260508120559 54 126 1.0 2.0 0.00 0.00 0.00 33 1013.1
20260508120500 54 126 0.0 2.0 0.00 0.00 0.00 33 1013.2
20260508120359 54 126 1.0 3.0 0.00 0.00 0.00 33 1013.2
20260508120258 54 126 1.0 3.0 0.00 0.00 0.00 33 1013.2
20260508120001 54 127 0.0 3.0 0.00 0.00 0.00 34 1013.1
20260508115858 54 132 1.0 3.0 0.00 0.00 0.00 33 1013.1
20260508115759 54 132 1.0 3.0 0.00 0.00 0.00 33 1013.2
20260508115658 54 132 1.0 3.0 0.00 0.00 0.00 33 1013.1
20260508115558 54 132 1.0 3.0 0.00 0.00 0.00 33 1013.1
20260508115459 54 111 1.0 5.0 0.00 0.00 0.00 33 1013.1
20260508115359 54 110 1.0 5.0 0.00 0.00 0.00 33 1013.0
20260508115259 54 107 1.0 5.0 0.00 0.00 0.00 33 1013.1
20260508115200 54 105 1.0 5.0 0.00 0.00 0.00 32 1013.0
20260508114959 54 83 0.0 5.0 0.00 0.00 0.00 32 1013.0
20260508114859 54 85 2.0 5.0 0.00 0.00 0.00 32 1013.1
20260508114758 54 88 0.0 5.0 0.00 0.00 0.00 33 1013.1
20260508114658 54 88 1.0 5.0 0.00 0.00 0.00 33 1013.1
20260508114558 53 80 3.0 3.0 0.00 0.00 0.00 33 1013.0
20260508114459 53 116 0.0 2.0 0.00 0.00 0.00 34 1013.0
20260508114359 53 116 2.0 2.0 0.00 0.00 0.00 35 1013.0
20260508114259 53 127 1.0 2.0 0.00 0.00 0.00 35 1013.0
20260508114059 53 130 0.0 2.0 0.00 0.00 0.00 36 1013.0
20260508113959 53 102 1.0 3.0 0.00 0.00 0.00 35 1013.0
20260508113858 54 112 0.0 3.0 0.00 0.00 0.00 36 1013.0
20260508113758 54 113 1.0 3.0 0.00 0.00 0.00 35 1013.0
20260508113658 54 113 1.0 3.0 0.00 0.00 0.00 36 1013.0
20260508113558 54 108 1.0 3.0 0.00 0.00 0.00 35 1012.9
20260508113459 54 105 1.0 3.0 0.00 0.00 0.00 35 1013.0
20260508113359 54 105 0.0 3.0 0.00 0.00 0.00 35 1013.0
20260508113258 54 105 1.0 3.0 0.00 0.00 0.00 35 1013.0
20260508113158 53 105 2.0 3.0 0.00 0.00 0.00 35 1013.0
20260508113059 53 110 2.0 2.0 0.00 0.00 0.00 35 1013.0
20260508112959 53 132 0.0 2.0 0.00 0.00 0.00 36 1013.0
20260508112900 53 123 0.0 2.0 0.00 0.00 0.00 36 1013.0
20260508112759 53 122 2.0 2.0 0.00 0.00 0.00 35 1013.0
20260508112658 53 108 1.0 2.0 0.00 0.00 0.00 35 1013.0
20260508112600 53 108 1.0 2.0 0.00 0.00 0.00 35 1013.0
20260508112459 53 107 0.0 2.0 0.00 0.00 0.00 35 1012.9
20260508112359 53 108 0.0 2.0 0.00 0.00 0.00 35 1012.9
20260508112259 53 108 1.0 2.0 0.00 0.00 0.00 35 1013.0
20260508111959 53 99 1.0 2.0 0.00 0.00 0.00 36 1012.9
20260508111859 53 98 0.0 2.0 0.00 0.00 0.00 37 1012.9
20260508111759 53 98 0.0 2.0 0.00 0.00 0.00 37 1012.9
20260508111659 53 98 0.0 2.0 0.00 0.00 0.00 37 1012.9
20260508111558 53 98 1.0 1.0 0.00 0.00 0.00 37 1012.9
20260508111459 53 98 1.0 3.0 0.00 0.00 0.00 37 1012.9
20260508111359 53 82 0.0 3.0 0.00 0.00 0.00 37 1012.9
20260508111259 53 82 0.0 3.0 0.00 0.00 0.00 36 1012.9
20260508111158 53 82 0.0 3.0 0.00 0.00 0.00 36 1012.9
20260508111059 53 82 1.0 3.0 0.00 0.00 0.00 37 1012.9
20260508111000 53 82 0.0 3.0 0.00 0.00 0.00 37 1013.0
20260508110859 53 82 0.0 3.0 0.00 0.00 0.00 37 1013.0
20260508110758 53 82 0.0 3.0 0.00 0.00 0.00 38 1012.9
20260508110559 53 82 2.0 3.0 0.00 0.00 0.00 37 1012.9
20260508110459 53 96 1.0 2.0 0.00 0.00 0.00 37 1012.9
20260508110358 53 98 1.0 2.0 0.00 0.00 0.00 36 1012.8
20260508110258 53 98 1.0 2.0 0.00 0.00 0.00 36 1012.9
20260508110200 53 98 1.0 2.0 0.00 0.00 0.00 37 1012.9
20260508110058 53 98 1.0 2.0 0.00 0.00 0.00 37 1012.9
20260508110001 53 98 1.0 2.0 0.00 0.00 0.00 37 1012.9
20260508105858 54 101 1.0 1.0 0.00 0.00 0.00 36 1012.8
20260508105759 54 101 0.0 1.0 0.00 0.00 0.00 36 1012.9
20260508105658 54 101 0.0 1.0 0.00 0.00 0.00 36 1012.8
20260508105559 54 101 0.0 1.0 0.00 0.00 0.00 35 1012.8
20260508105500 54 101 0.0 1.0 0.00 0.00 0.00 35 1012.8
20260508105258 54 101 0.0 1.0 0.00 0.00 0.00 35 1012.8
20260508105159 54 101 0.0 1.0 0.00 0.00 0.00 35 1012.8
20260508105058 54 101 1.0 2.0 0.00 0.00 0.00 35 1012.8
20260508104959 54 101 1.0 2.0 0.00 0.00 0.00 35 1012.8
20260508104858 54 101 0.0 2.0 0.00 0.00 0.00 35 1012.8
20260508104758 54 101 0.0 2.0 0.00 0.00 0.00 35 1012.7
20260508104658 54 101 1.0 2.0 0.00 0.00 0.00 35 1012.8
20260508104559 54 101 0.0 2.0 0.00 0.00 0.00 35 1012.7
20260508104400 54 101 0.0 3.0 0.00 0.00 0.00 34 1012.8
20260508104258 54 101 1.0 3.0 0.00 0.00 0.00 33 1012.7
20260508104159 54 96 2.0 3.0 0.00 0.00 0.00 34 1012.7
20260508104058 54 82 0.0 3.0 0.00 0.00 0.00 34 1012.7
20260508103959 54 77 1.0 3.0 0.00 0.00 0.00 34 1012.7
20260508103758 54 77 2.0 3.0 0.00 0.00 0.00 35 1012.7
20260508103559 54 77 2.0 3.0 0.00 0.00 0.00 35 1012.7
20260508103459 54 76 2.0 3.0 0.00 0.00 0.00 35 1012.6
20260508103358 54 74 2.0 2.0 0.00 0.00 0.00 35 1012.7
20260508103259 54 74 2.0 2.0 0.00 0.00 0.00 35 1012.7
20260508103159 54 74 0.0 2.0 0.00 0.00 0.00 35 1012.7
20260508103058 54 74 2.0 2.0 0.00 0.00 0.00 35 1012.6
20260508102858 54 74 1.0 2.0 0.00 0.00 0.00 34 1012.6
20260508102758 54 75 2.0 2.0 0.00 0.00 0.00 35 1012.7
20260508102659 54 75 0.0 2.0 0.00 0.00 0.00 34 1012.7
20260508102558 54 75 1.0 2.0 0.00 0.00 0.00 34 1012.7
20260508102501 54 76 1.0 2.0 0.00 0.00 0.00 35 1012.7
20260508102358 54 83 0.0 2.0 0.00 0.00 0.00 35 1012.7
20260508102158 54 75 1.0 2.0 0.00 0.00 0.00 34 1012.6
20260508102059 54 55 1.0 1.0 0.00 0.00 0.00 35 1012.7
20260508101958 54 55 1.0 1.0 0.00 0.00 0.00 35 1012.7
20260508101858 54 55 0.0 1.0 0.00 0.00 0.00 34 1012.7
20260508101759 54 55 0.0 1.0 0.00 0.00 0.00 35 1012.6
20260508101658 54 55 0.0 1.0 0.00 0.00 0.00 35 1012.7
20260508101500 54 55 0.0 1.0 0.00 0.00 0.00 35 1012.6
20260508101359 54 55 0.0 1.0 0.00 0.00 0.00 34 1012.6
20260508101259 54 55 0.0 2.0 0.00 0.00 0.00 34 1012.6
20260508101159 54 55 0.0 2.0 0.00 0.00 0.00 34 1012.6
20260508101058 54 55 0.0 2.0 0.00 0.00 0.00 34 1012.6
20260508100958 54 55 0.0 2.0 0.00 0.00 0.00 33 1012.6
20260508100859 54 55 0.0 2.0 0.00 0.00 0.00 35 1012.6
20260508100758 54 55 0.0 3.0 0.00 0.00 0.00 35 1012.6
20260508100658 54 55 0.0 3.0 0.00 0.00 0.00 35 1012.6
20260508100559 54 55 1.0 3.0 0.00 0.00 0.00 35 1012.6
20260508100358 54 55 2.0 3.0 0.00 0.00 0.00 34 1012.6
20260508100258 54 55 1.0 3.0 0.00 0.00 0.00 34 1012.6
20260508100159 54 55 1.0 3.0 0.00 0.00 0.00 35 1012.6
20260508100059 54 55 2.0 3.0 0.00 0.00 0.00 35 1012.6
20260508095859 54 101 2.0 3.0 0.00 0.00 0.00 35 1012.6
20260508095758 54 121 1.0 3.0 0.00 0.00 0.00 35 1012.7
20260508095558 54 76 1.0 3.0 0.00 0.00 0.00 34 1012.6
20260508095500 54 76 1.0 3.0 0.00 0.00 0.00 34 1012.6
20260508095358 54 77 1.0 3.0 0.00 0.00 0.00 34 1012.6
20260508095258 54 78 2.0 3.0 0.00 0.00 0.00 35 1012.7
20260508095158 54 78 1.0 3.0 0.00 0.00 0.00 35 1012.6
20260508094958 54 38 0.0 3.0 0.00 0.00 0.00 35 1012.6
20260508094858 54 38 0.0 3.0 0.00 0.00 0.00 34 1012.6
20260508094758 54 38 2.0 3.0 0.00 0.00 0.00 34 1012.5
20260508094659 54 69 1.0 3.0 0.00 0.00 0.00 34 1012.6
20260508094558 54 98 2.0 3.0 0.00 0.00 0.00 34 1012.6
20260508094459 54 112 2.0 2.0 0.00 0.00 0.00 33 1012.6
20260508094357 54 76 0.0 2.0 0.00 0.00 0.00 33 1012.6
20260508094158 54 75 0.0 2.0 0.00 0.00 0.00 34 1012.6
20260508094058 54 75 0.0 2.0 0.00 0.00 0.00 35 1012.6
20260508093959 54 75 0.0 2.0 0.00 0.00 0.00 33 1012.6
20260508093758 54 62 1.0 2.0 0.00 0.00 0.00 33 1012.6
20260508093658 54 80 0.0 0.0 0.00 0.00 0.00 35 1012.5
20260508093358 54 75 0.0 1.0 0.00 0.00 0.00 35 1012.5
20260508093258 54 82 0.0 2.0 0.00 0.00 0.00 35 1012.5
20260508092959 54 85 0.0 4.0 0.00 0.00 0.00 35 1012.6
20260508092658 54 85 0.0 4.0 0.00 0.00 0.00 35 1012.6
20260508092559 54 85 0.0 4.0 0.00 0.00 0.00 35 1012.6
20260508092458 54 85 1.0 4.0 0.00 0.00 0.00 35 1012.6
20260508092400 54 86 1.0 4.0 0.00 0.00 0.00 35 1012.6
20260508092258 54 85 2.0 5.0 0.00 0.00 0.00 36 1012.6
20260508092159 54 78 3.0 4.0 0.00 0.00 0.00 36 1012.6
20260508092058 54 78 2.0 3.0 0.00 0.00 0.00 35 1012.6
20260508092000 54 70 1.0 3.0 0.00 0.00 0.00 35 1012.7
20260508091858 54 70 1.0 3.0 0.00 0.00 0.00 36 1012.7
20260508091758 54 70 2.0 2.0 0.00 0.00 0.00 37 1012.7
20260508091658 54 65 1.0 2.0 0.00 0.00 0.00 37 1012.7
20260508091559 54 65 2.0 2.0 0.00 0.00 0.00 37 1012.7
20260508091458 54 65 0.0 2.0 0.00 0.00 0.00 37 1012.7
20260508091359 54 65 2.0 2.0 0.00 0.00 0.00 38 1012.6
20260508091258 54 69 2.0 2.0 0.00 0.00 0.00 38 1012.7
20260508091158 54 65 1.0 2.0 0.00 0.00 0.00 38 1012.7
20260508091059 54 66 1.0 2.0 0.00 0.00 0.00 38 1012.7
20260508090959 54 68 0.0 2.0 0.00 0.00 0.00 37 1012.7
20260508090759 54 68 1.0 2.0 0.00 0.00 0.00 38 1012.6
20260508090659 54 63 1.0 2.0 0.00 0.00 0.00 38 1012.6
20260508090500 54 49 0.0 2.0 0.00 0.00 0.00 38 1012.6
20260508090359 54 49 0.0 2.0 0.00 0.00 0.00 38 1012.6
20260508090258 54 49 1.0 2.0 0.00 0.00 0.00 39 1012.6
20260508090158 54 49 1.0 3.0 0.00 0.00 0.00 38 1012.6
20260508090058 54 49 0.0 3.0 0.00 0.00 0.00 39 1012.6
20260508085859 54 49 0.0 3.0 0.00 0.00 0.00 39 1012.6
20260508085558 54 49 0.0 3.0 0.00 0.00 0.00 40 1012.6
20260508085458 54 49 1.0 3.0 0.00 0.00 0.00 40 1012.6
20260508085358 54 59 1.0 3.0 0.00 0.00 0.00 40 1012.6
20260508085258 54 68 2.0 3.0 0.00 0.00 0.00 41 1012.7
20260508085158 54 75 2.0 2.0 0.00 0.00 0.00 41 1012.7
20260508084859 54 77 0.0 2.0 0.00 0.00 0.00 41 1012.7
20260508084758 54 77 1.0 2.0 0.00 0.00 0.00 41 1012.7
20260508084659 54 77 1.0 2.0 0.00 0.00 0.00 39 1012.7
20260508084558 54 74 1.0 2.0 0.00 0.00 0.00 41 1012.7
20260508084459 54 74 1.0 2.0 0.00 0.00 0.00 40 1012.7
20260508084358 55 74 0.0 2.0 0.00 0.00 0.00 40 1012.7
20260508084258 55 74 0.0 2.0 0.00 0.00 0.00 40 1012.7
20260508084058 55 74 1.0 2.0 0.00 0.00 0.00 39 1012.7
20260508083958 55 74 0.0 2.0 0.00 0.00 0.00 39 1012.7
20260508083900 55 74 1.0 2.0 0.00 0.00 0.00 39 1012.7
20260508083659 55 78 1.0 2.0 0.00 0.00 0.00 39 1012.7
20260508083459 55 78 0.0 3.0 0.00 0.00 0.00 38 1012.7
20260508083358 55 78 0.0 3.0 0.00 0.00 0.00 38 1012.7
20260508083259 55 78 0.0 3.0 0.00 0.00 0.00 38 1012.7
20260508083200 55 78 0.0 3.0 0.00 0.00 0.00 38 1012.7
20260508083058 55 66 0.0 3.0 0.00 0.00 0.00 39 1012.7
20260508082959 55 89 1.0 3.0 0.00 0.00 0.00 39 1012.7
20260508082758 55 89 2.0 3.0 0.00 0.00 0.00 38 1012.7
20260508082658 55 92 1.0 3.0 0.00 0.00 0.00 38 1012.7
20260508082558 55 121 1.0 2.0 0.00 0.00 0.00 37 1012.7
20260508082459 55 121 1.0 2.0 0.00 0.00 0.00 37 1012.7
20260508082358 55 121 1.0 2.0 0.00 0.00 0.00 37 1012.7
20260508082300 55 121 1.0 3.0 0.00 0.00 0.00 38 1012.7
20260508082200 55 121 1.0 3.0 0.00 0.00 0.00 38 1012.8
20260508082058 55 121 0.0 3.0 0.00 0.00 0.00 38 1012.8
20260508081859 55 121 0.0 3.0 0.00 0.00 0.00 37 1012.7
20260508081658 55 123 2.0 3.0 0.00 0.00 0.00 37 1012.7
20260508081358 56 121 1.0 2.0 0.00 0.00 0.00 38 1012.7
20260508081258 56 69 1.0 2.0 0.00 0.00 0.00 37 1012.6
20260508081058 56 69 2.0 2.0 0.00 0.00 0.00 38 1012.7
20260508080959 56 69 0.0 0.0 0.00 0.00 0.00 38 1012.7
20260508080859 56 69 0.0 0.0 0.00 0.00 0.00 38 1012.7
20260508080757 56 69 0.0 0.0 0.00 0.00 0.00 38 1012.7
20260508080658 56 69 0.0 0.0 0.00 0.00 0.00 38 1012.6
20260508080459 56 69 0.0 0.0 0.00 0.00 0.00 39 1012.6
20260508080359 56 69 0.0 1.0 0.00 0.00 0.00 39 1012.7
20260508080259 56 80 0.0 2.0 0.00 0.00 0.00 39 1012.7
20260508080159 56 91 0.0 2.0 0.00 0.00 0.00 39 1012.7
20260508080058 56 91 0.0 2.0 0.00 0.00 0.00 38 1012.6
20260508080001 56 91 0.0 2.0 0.00 0.00 0.00 37 1012.6
20260508075858 56 91 0.0 2.0 0.00 0.00 0.00 37 1012.5
20260508075758 56 91 0.0 2.0 0.00 0.00 0.00 37 1012.5
20260508075558 57 91 0.0 4.0 0.00 0.00 0.00 37 1012.6
20260508075500 57 91 0.0 4.0 0.00 0.00 0.00 37 1012.5
20260508075357 57 92 1.0 4.0 0.00 0.00 0.00 37 1012.5
20260508075258 57 94 1.0 4.0 0.00 0.00 0.00 37 1012.5
20260508075158 57 94 0.0 4.0 0.00 0.00 0.00 37 1012.5
20260508074958 57 84 0.0 4.0 0.00 0.00 0.00 36 1012.5
20260508074858 57 78 1.0 4.0 0.00 0.00 0.00 36 1012.5
20260508074757 57 76 2.0 4.0 0.00 0.00 0.00 36 1012.5
20260508074658 57 78 3.0 5.0 0.00 0.00 0.00 35 1012.4
20260508074459 57 81 1.0 3.0 0.00 0.00 0.00 36 1012.5
20260508074359 57 80 0.0 3.0 0.00 0.00 0.00 36 1012.5
20260508074258 57 80 1.0 3.0 0.00 0.00 0.00 37 1012.5
20260508074158 57 80 1.0 3.0 0.00 0.00 0.00 37 1012.5
20260508073958 57 80 2.0 3.0 0.00 0.00 0.00 36 1012.5
20260508073857 57 76 1.0 4.0 0.00 0.00 0.00 37 1012.5
20260508073558 57 82 2.0 4.0 0.00 0.00 0.00 37 1012.5
20260508073459 57 77 2.0 4.0 0.00 0.00 0.00 37 1012.5
20260508073358 57 80 3.0 4.0 0.00 0.00 0.00 37 1012.5
20260508073258 57 74 3.0 4.0 0.00 0.00 0.00 37 1012.5
20260508073158 57 62 2.0 4.0 0.00 0.00 0.00 37 1012.5
20260508073058 57 74 2.0 4.0 0.00 0.00 0.00 37 1012.5
20260508072958 57 76 2.0 4.0 0.00 0.00 0.00 38 1012.5
20260508072658 57 76 1.0 4.0 0.00 0.00 0.00 38 1012.5
20260508072558 57 71 2.0 4.0 0.00 0.00 0.00 38 1012.6
20260508072358 57 75 2.0 4.0 0.00 0.00 0.00 37 1012.6
20260508072257 57 73 0.0 4.0 0.00 0.00 0.00 37 1012.6
20260508072159 57 73 1.0 4.0 0.00 0.00 0.00 37 1012.6
20260508072058 57 72 1.0 4.0 0.00 0.00 0.00 37 1012.6
20260508071958 57 74 3.0 4.0 0.00 0.00 0.00 37 1012.6
20260508071858 57 81 3.0 3.0 0.00 0.00 0.00 37 1012.6
20260508071758 57 87 1.0 3.0 0.00 0.00 0.00 37 1012.6
20260508071658 57 87 1.0 3.0 0.00 0.00 0.00 37 1012.6
20260508071558 57 87 1.0 3.0 0.00 0.00 0.00 37 1012.6
20260508071459 57 87 0.0 3.0 0.00 0.00 0.00 37 1012.6
20260508071359 57 87 1.0 3.0 0.00 0.00 0.00 37 1012.6
20260508071259 57 90 2.0 3.0 0.00 0.00 0.00 37 1012.5
20260508071158 57 88 2.0 3.0 0.00 0.00 0.00 37 1012.6
20260508071057 57 83 1.0 3.0 0.00 0.00 0.00 37 1012.5
20260508070959 57 78 0.0 3.0 0.00 0.00 0.00 37 1012.6
20260508070858 57 76 2.0 3.0 0.00 0.00 0.00 37 1012.6
20260508070757 57 71 3.0 3.0 0.00 0.00 0.00 37 1012.6
20260508070658 57 78 2.0 3.0 0.00 0.00 0.00 37 1012.6
20260508070459 57 77 1.0 3.0 0.00 0.00 0.00 37 1012.6
20260508070358 57 71 2.0 3.0 0.00 0.00 0.00 37 1012.5
20260508070159 57 71 2.0 3.0 0.00 0.00 0.00 38 1012.5
20260508070058 57 71 2.0 3.0 0.00 0.00 0.00 37 1012.6
20260508070001 57 75 2.0 3.0 0.00 0.00 0.00 37 1012.6
20260508065858 57 68 3.0 3.0 0.00 0.00 0.00 37 1012.6
20260508065759 57 73 2.0 3.0 0.00 0.00 0.00 37 1012.6
20260508065658 57 88 2.0 3.0 0.00 0.00 0.00 37 1012.5
20260508065558 57 84 2.0 3.0 0.00 0.00 0.00 37 1012.6
20260508065459 57 87 1.0 3.0 0.00 0.00 0.00 36 1012.5
20260508065359 57 76 2.0 3.0 0.00 0.00 0.00 37 1012.6
20260508065258 57 74 1.0 2.0 0.00 0.00 0.00 37 1012.6
20260508065159 58 74 1.0 2.0 0.00 0.00 0.00 38 1012.6
20260508065059 58 74 1.0 2.0 0.00 0.00 0.00 37 1012.6
20260508064958 58 74 1.0 2.0 0.00 0.00 0.00 37 1012.6
20260508064858 58 74 1.0 2.0 0.00 0.00 0.00 37 1012.5
20260508064758 58 67 1.0 3.0 0.00 0.00 0.00 37 1012.5
20260508064558 58 67 0.0 3.0 0.00 0.00 0.00 37 1012.6
20260508064459 58 67 0.0 3.0 0.00 0.00 0.00 37 1012.5
20260508064358 58 67 1.0 3.0 0.00 0.00 0.00 37 1012.6
20260508064257 58 67 1.0 3.0 0.00 0.00 0.00 37 1012.5
20260508064158 58 59 2.0 3.0 0.00 0.00 0.00 37 1012.5
20260508064057 58 56 1.0 3.0 0.00 0.00 0.00 37 1012.4
20260508063958 58 63 2.0 5.0 0.00 0.00 0.00 37 1012.5
20260508063758 58 65 1.0 5.0 0.00 0.00 0.00 37 1012.4
20260508063558 58 51 1.0 5.0 0.00 0.00 0.00 37 1012.4
20260508063500 58 53 1.0 5.0 0.00 0.00 0.00 36 1012.4
20260508063357 58 63 1.0 5.0 0.00 0.00 0.00 36 1012.4
20260508063258 58 61 3.0 5.0 0.00 0.00 0.00 36 1012.4
20260508063157 58 80 2.0 5.0 0.00 0.00 0.00 36 1012.4
20260508062958 58 74 1.0 2.0 0.00 0.00 0.00 36 1012.5
20260508062858 58 76 1.0 2.0 0.00 0.00 0.00 36 1012.4
20260508062759 58 53 1.0 2.0 0.00 0.00 0.00 36 1012.5
20260508062558 58 53 1.0 2.0 0.00 0.00 0.00 35 1012.4
20260508062459 58 53 0.0 1.0 0.00 0.00 0.00 35 1012.4
20260508062359 58 53 0.0 1.0 0.00 0.00 0.00 35 1012.4
20260508062259 58 53 0.0 1.0 0.00 0.00 0.00 35 1012.4
20260508062157 58 53 0.0 1.0 0.00 0.00 0.00 36 1012.4
20260508062101 58 53 0.0 1.0 0.00 0.00 0.00 35 1012.4
20260508061959 58 53 0.0 1.0 0.00 0.00 0.00 35 1012.4
20260508061859 58 53 0.0 1.0 0.00 0.00 0.00 35 1012.3
20260508061759 58 53 0.0 1.0 0.00 0.00 0.00 35 1012.4
20260508061658 58 53 1.0 1.0 0.00 0.00 0.00 35 1012.4
20260508061558 58 53 0.0 1.0 0.00 0.00 0.00 35 1012.4
20260508061459 58 53 0.0 1.0 0.00 0.00 0.00 36 1012.4
20260508061358 58 53 0.0 2.0 0.00 0.00 0.00 36 1012.4
20260508061258 58 53 0.0 2.0 0.00 0.00 0.00 36 1012.3
20260508061159 58 53 0.0 2.0 0.00 0.00 0.00 35 1012.3
20260508061058 58 53 0.0 3.0 0.00 0.00 0.00 36 1012.3
20260508060958 58 53 0.0 3.0 0.00 0.00 0.00 37 1012.3
20260508060857 58 53 1.0 3.0 0.00 0.00 0.00 37 1012.3
20260508060659 58 53 1.0 3.0 0.00 0.00 0.00 37 1012.3
20260508060558 58 53 0.0 3.0 0.00 0.00 0.00 37 1012.3
20260508060459 58 53 1.0 3.0 0.00 0.00 0.00 36 1012.2
20260508060359 58 53 1.0 3.0 0.00 0.00 0.00 37 1012.3
20260508060257 58 53 1.0 3.0 0.00 0.00 0.00 36 1012.3
20260508060159 58 53 2.0 3.0 0.00 0.00 0.00 36 1012.3
20260508060005 59 53 1.0 2.0 0.00 0.00 0.00 36 1012.3
20260508055859 59 53 1.0 2.0 0.00 0.00 0.00 36 1012.3
20260508055758 59 53 1.0 2.0 0.00 0.00 0.00 35 1012.3
20260508055658 59 53 1.0 2.0 0.00 0.00 0.00 35 1012.3
20260508055558 59 53 1.0 2.0 0.00 0.00 0.00 35 1012.3
20260508055459 59 53 1.0 2.0 0.00 0.00 0.00 35 1012.3
20260508055359 59 53 1.0 2.0 0.00 0.00 0.00 35 1012.3
20260508055259 59 53 0.0 1.0 0.00 0.00 0.00 35 1012.4
20260508055158 59 53 0.0 1.0 0.00 0.00 0.00 35 1012.3
20260508055057 59 53 0.0 1.0 0.00 0.00 0.00 35 1012.3
20260508054959 59 53 0.0 1.0 0.00 0.00 0.00 35 1012.3
20260508054859 59 53 0.0 1.0 0.00 0.00 0.00 35 1012.3
20260508054758 59 53 0.0 1.0 0.00 0.00 0.00 35 1012.3
20260508054558 59 53 0.0 1.0 0.00 0.00 0.00 34 1012.3
20260508054459 59 53 0.0 1.0 0.00 0.00 0.00 34 1012.3
20260508054359 59 53 0.0 1.0 0.00 0.00 0.00 34 1012.3
20260508054059 59 53 0.0 1.0 0.00 0.00 0.00 33 1012.3
20260508054000 59 53 0.0 1.0 0.00 0.00 0.00 34 1012.3
20260508053859 59 53 1.0 1.0 0.00 0.00 0.00 34 1012.3
20260508053759 59 53 0.0 1.0 0.00 0.00 0.00 34 1012.3
20260508053659 59 53 0.0 1.0 0.00 0.00 0.00 33 1012.3
20260508053558 60 53 0.0 2.0 0.00 0.00 0.00 33 1012.3
20260508053359 60 53 0.0 2.0 0.00 0.00 0.00 34 1012.3
20260508053259 60 53 1.0 2.0 0.00 0.00 0.00 34 1012.3
20260508053159 60 53 0.0 2.0 0.00 0.00 0.00 33 1012.3
20260508053100 60 53 0.0 2.0 0.00 0.00 0.00 33 1012.3
20260508052857 60 53 0.0 2.0 0.00 0.00 0.00 32 1012.3
20260508052658 60 53 1.0 2.0 0.00 0.00 0.00 32 1012.2
20260508052558 60 53 1.0 2.0 0.00 0.00 0.00 32 1012.3
20260508052358 60 53 1.0 2.0 0.00 0.00 0.00 31 1012.2
20260508052258 60 53 2.0 2.0 0.00 0.00 0.00 31 1012.2
20260508052158 60 53 0.0 2.0 0.00 0.00 0.00 31 1012.2
20260508051959 60 52 1.0 2.0 0.00 0.00 0.00 31 1012.2
20260508051858 61 53 0.0 2.0 0.00 0.00 0.00 31 1012.3
20260508051759 61 53 0.0 2.0 0.00 0.00 0.00 31 1012.2
20260508051659 61 53 1.0 2.0 0.00 0.00 0.00 31 1012.2
20260508051559 61 53 2.0 2.0 0.00 0.00 0.00 31 1012.2
20260508051359 61 58 0.0 2.0 0.00 0.00 0.00 31 1012.2
20260508051158 61 58 1.0 2.0 0.00 0.00 0.00 31 1012.2
20260508051059 61 58 2.0 2.0 0.00 0.00 0.00 31 1012.2
20260508050858 61 58 1.0 2.0 0.00 0.00 0.00 30 1012.2
20260508050758 61 58 1.0 2.0 0.00 0.00 0.00 30 1012.2
20260508050558 61 58 0.0 2.0 0.00 0.00 0.00 30 1012.2
20260508050459 61 58 0.0 2.0 0.00 0.00 0.00 30 1012.2
20260508050358 61 58 1.0 2.0 0.00 0.00 0.00 30 1012.2
20260508050158 61 58 1.0 2.0 0.00 0.00 0.00 29 1012.2
20260508050058 61 60 2.0 2.0 0.00 0.00 0.00 29 1012.2
20260508050001 61 52 1.0 2.0 0.00 0.00 0.00 30 1012.1
20260508045858 61 52 0.0 2.0 0.00 0.00 0.00 29 1012.2
20260508045757 61 52 0.0 2.0 0.00 0.00 0.00 29 1012.2
20260508045658 61 59 0.0 0.0 0.00 0.00 0.00 29 1012.2
20260508045559 61 46 0.0 0.0 0.00 0.00 0.00 29 1012.2
20260508045459 61 49 0.0 0.0 0.00 0.00 0.00 29 1012.2
20260508045358 61 49 0.0 0.0 0.00 0.00 0.00 29 1012.1
20260508045258 61 48 0.0 0.0 0.00 0.00 0.00 30 1012.2
20260508045159 61 48 0.0 1.0 0.00 0.00 0.00 30 1012.1
20260508044959 61 48 0.0 2.0 0.00 0.00 0.00 30 1012.1
20260508044858 61 48 0.0 2.0 0.00 0.00 0.00 30 1012.2
20260508044758 62 48 0.0 2.0 0.00 0.00 0.00 30 1012.2
20260508044659 62 48 0.0 2.0 0.00 0.00 0.00 30 1012.2
20260508044558 62 48 0.0 2.0 0.00 0.00 0.00 29 1012.2
20260508044459 62 48 0.0 3.0 0.00 0.00 0.00 30 1012.1
20260508044359 62 51 0.0 3.0 0.00 0.00 0.00 30 1012.2
20260508044258 62 51 1.0 3.0 0.00 0.00 0.00 30 1012.1
20260508044158 62 51 2.0 3.0 0.00 0.00 0.00 29 1012.1
20260508044059 62 53 0.0 3.0 0.00 0.00 0.00 29 1012.1
20260508043659 61 61 2.0 3.0 0.00 0.00 0.00 29 1012.2
20260508043558 61 49 1.0 3.0 0.00 0.00 0.00 29 1012.2
20260508043359 61 59 1.0 3.0 0.00 0.00 0.00 30 1012.1
20260508043258 61 51 1.0 3.0 0.00 0.00 0.00 30 1012.1
20260508043159 61 53 1.0 3.0 0.00 0.00 0.00 31 1012.1
20260508043058 61 53 1.0 3.0 0.00 0.00 0.00 31 1012.1
20260508042958 61 55 1.0 3.0 0.00 0.00 0.00 31 1012.2
20260508042858 61 53 1.0 3.0 0.00 0.00 0.00 31 1012.1
20260508042757 61 51 1.0 3.0 0.00 0.00 0.00 31 1012.1
20260508042700 61 63 2.0 3.0 0.00 0.00 0.00 31 1012.1
20260508042559 61 76 3.0 3.0 0.00 0.00 0.00 30 1012.1
20260508042500 61 61 2.0 3.0 0.00 0.00 0.00 30 1012.1
20260508042400 61 61 1.0 3.0 0.00 0.00 0.00 30 1012.1
20260508042259 61 68 1.0 3.0 0.00 0.00 0.00 31 1012.1
20260508042159 61 68 1.0 3.0 0.00 0.00 0.00 31 1012.1
20260508042058 61 53 1.0 3.0 0.00 0.00 0.00 31 1012.1
20260508041958 61 38 1.0 3.0 0.00 0.00 0.00 31 1012.1
20260508041658 61 46 2.0 3.0 0.00 0.00 0.00 32 1012.0
20260508041559 61 51 1.0 3.0 0.00 0.00 0.00 32 1012.0
20260508041359 61 66 2.0 3.0 0.00 0.00 0.00 33 1012.0
20260508041257 61 65 1.0 3.0 0.00 0.00 0.00 31 1012.0
20260508041158 61 61 1.0 3.0 0.00 0.00 0.00 32 1012.0
20260508041058 61 55 1.0 3.0 0.00 0.00 0.00 32 1012.0
20260508040959 61 57 1.0 3.0 0.00 0.00 0.00 32 1012.1
20260508040858 61 51 1.0 3.0 0.00 0.00 0.00 32 1012.0
20260508040658 61 55 2.0 3.0 0.00 0.00 0.00 31 1012.0
20260508040559 61 53 1.0 3.0 0.00 0.00 0.00 31 1012.0
20260508040458 61 55 2.0 3.0 0.00 0.00 0.00 32 1012.0
20260508040359 61 69 0.0 3.0 0.00 0.00 0.00 32 1012.0
20260508040258 61 51 2.0 3.0 0.00 0.00 0.00 31 1012.0
20260508040158 61 49 1.0 3.0 0.00 0.00 0.00 32 1012.0
20260508040058 61 51 2.0 3.0 0.00 0.00 0.00 31 1012.0
20260508035858 62 53 1.0 3.0 0.00 0.00 0.00 31 1011.9
20260508035758 62 57 2.0 3.0 0.00 0.00 0.00 31 1011.9
20260508035658 62 50 1.0 3.0 0.00 0.00 0.00 31 1011.9
20260508035558 62 60 1.0 3.0 0.00 0.00 0.00 31 1011.9
20260508035458 62 69 1.0 3.0 0.00 0.00 0.00 31 1011.9
20260508035358 62 69 1.0 3.0 0.00 0.00 0.00 31 1011.9
20260508035259 62 72 1.0 3.0 0.00 0.00 0.00 31 1011.9
20260508035158 62 73 2.0 3.0 0.00 0.00 0.00 31 1011.9
20260508035059 62 69 1.0 3.0 0.00 0.00 0.00 31 1011.9
20260508034959 62 65 2.0 3.0 0.00 0.00 0.00 31 1011.9
20260508034858 62 65 2.0 3.0 0.00 0.00 0.00 31 1011.9
20260508034758 62 64 2.0 3.0 0.00 0.00 0.00 30 1011.9
20260508034358 62 55 1.0 3.0 0.00 0.00 0.00 30 1011.9
20260508034259 62 55 1.0 3.0 0.00 0.00 0.00 29 1011.9
20260508034159 63 55 1.0 3.0 0.00 0.00 0.00 29 1011.9
20260508034059 63 55 1.0 3.0 0.00 0.00 0.00 30 1011.8
20260508033857 63 63 1.0 3.0 0.00 0.00 0.00 29 1011.8
20260508033758 63 49 1.0 3.0 0.00 0.00 0.00 29 1011.8
20260508033657 63 48 2.0 2.0 0.00 0.00 0.00 29 1011.8
20260508033558 63 43 1.0 2.0 0.00 0.00 0.00 29 1011.8
20260508033359 63 45 1.0 2.0 0.00 0.00 0.00 29 1011.8
20260508033258 63 49 1.0 2.0 0.00 0.00 0.00 29 1011.8
20260508033059 63 51 1.0 2.0 0.00 0.00 0.00 28 1011.8
20260508032959 63 51 1.0 3.0 0.00 0.00 0.00 28 1011.8
20260508032657 63 49 0.0 3.0 0.00 0.00 0.00 28 1011.7
20260508032559 63 49 1.0 3.0 0.00 0.00 0.00 28 1011.8
20260508032459 63 50 1.0 3.0 0.00 0.00 0.00 28 1011.7
20260508032358 63 44 2.0 3.0 0.00 0.00 0.00 28 1011.7
20260508032258 62 43 0.0 3.0 0.00 0.00 0.00 28 1011.7
20260508032158 62 43 2.0 3.0 0.00 0.00 0.00 29 1011.7
20260508031858 62 46 1.0 3.0 0.00 0.00 0.00 30 1011.7
20260508031758 62 46 2.0 3.0 0.00 0.00 0.00 30 1011.7
20260508031659 62 58 0.0 3.0 0.00 0.00 0.00 30 1011.7
20260508031459 63 58 0.0 3.0 0.00 0.00 0.00 31 1011.6
20260508031358 63 58 1.0 3.0 0.00 0.00 0.00 30 1011.6
20260508031259 63 58 0.0 3.0 0.00 0.00 0.00 30 1011.6
20260508031159 63 58 2.0 3.0 0.00 0.00 0.00 30 1011.5
20260508031058 63 58 2.0 3.0 0.00 0.00 0.00 30 1011.6
20260508030959 63 58 2.0 3.0 0.00 0.00 0.00 30 1011.5
20260508030658 63 58 1.0 3.0 0.00 0.00 0.00 30 1011.5
20260508030559 63 58 0.0 3.0 0.00 0.00 0.00 31 1011.5
20260508030358 63 55 2.0 2.0 0.00 0.00 0.00 30 1011.5
20260508030259 63 355 0.0 2.0 0.00 0.00 0.00 30 1011.5
20260508030158 63 355 0.0 2.0 0.00 0.00 0.00 30 1011.5
20260508030058 63 270 1.0 2.0 0.00 0.00 0.00 30 1011.5
20260508030001 63 257 1.0 2.0 0.00 0.00 0.00 29 1011.5
20260508025858 64 257 1.0 2.0 0.00 0.00 0.00 29 1011.5
20260508025758 64 257 1.0 2.0 0.00 0.00 0.00 29 1011.4
20260508025559 64 251 1.0 2.0 0.00 0.00 0.00 29 1011.5
20260508025459 64 251 0.0 2.0 0.00 0.00 0.00 29 1011.5
20260508025358 64 251 0.0 2.0 0.00 0.00 0.00 29 1011.4
20260508025300 64 251 1.0 1.0 0.00 0.00 0.00 29 1011.4
20260508025158 64 251 0.0 1.0 0.00 0.00 0.00 29 1011.4
20260508025059 64 251 0.0 1.0 0.00 0.00 0.00 28 1011.4
20260508024959 65 251 0.0 1.0 0.00 0.00 0.00 28 1011.4
20260508024858 65 251 1.0 1.0 0.00 0.00 0.00 28 1011.4
20260508024759 65 251 0.0 1.0 0.00 0.00 0.00 28 1011.4
20260508024659 65 251 0.0 1.0 0.00 0.00 0.00 28 1011.4
20260508024500 65 251 0.0 1.0 0.00 0.00 0.00 28 1011.4
20260508024358 65 251 0.0 0.0 0.00 0.00 0.00 28 1011.4
20260508024258 65 251 0.0 0.0 0.00 0.00 0.00 28 1011.4
20260508024158 65 251 0.0 0.0 0.00 0.00 0.00 28 1011.4
20260508024058 65 251 0.0 0.0 0.00 0.00 0.00 28 1011.4
20260508024000 66 251 0.0 0.0 0.00 0.00 0.00 28 1011.4
20260508023658 66 251 0.0 0.0 0.00 0.00 0.00 28 1011.4
20260508023558 66 251 0.0 0.0 0.00 0.00 0.00 28 1011.4
20260508023458 66 251 0.0 0.0 0.00 0.00 0.00 27 1011.4
20260508023358 66 251 0.0 0.0 0.00 0.00 0.00 27 1011.4
20260508023158 66 251 0.0 0.0 0.00 0.00 0.00 27 1011.4
20260508023058 66 251 0.0 0.0 0.00 0.00 0.00 26 1011.5
20260508022959 66 251 0.0 0.0 0.00 0.00 0.00 26 1011.4
20260508022858 66 251 0.0 0.0 0.00 0.00 0.00 26 1011.4
20260508022758 66 251 0.0 0.0 0.00 0.00 0.00 26 1011.4
20260508022657 66 251 0.0 0.0 0.00 0.00 0.00 26 1011.5
20260508022500 67 251 0.0 0.0 0.00 0.00 0.00 26 1011.4
20260508022258 67 251 0.0 0.0 0.00 0.00 0.00 25 1011.4
20260508022200 67 251 0.0 0.0 0.00 0.00 0.00 25 1011.4
20260508021959 67 251 0.0 0.0 0.00 0.00 0.00 25 1011.4
20260508021858 67 251 0.0 0.0 0.00 0.00 0.00 25 1011.4
20260508021759 67 251 0.0 1.0 0.00 0.00 0.00 25 1011.4
20260508021659 67 251 0.0 2.0 0.00 0.00 0.00 25 1011.4
20260508021558 67 251 0.0 2.0 0.00 0.00 0.00 24 1011.4
20260508021459 68 251 0.0 3.0 0.00 0.00 0.00 24 1011.4
20260508021358 68 251 0.0 3.0 0.00 0.00 0.00 24 1011.3
20260508021257 68 251 0.0 3.0 0.00 0.00 0.00 24 1011.3
20260508021058 68 251 0.0 3.0 0.00 0.00 0.00 24 1011.3
20260508020959 68 251 0.0 3.0 0.00 0.00 0.00 23 1011.3
20260508020858 68 251 0.0 3.0 0.00 0.00 0.00 23 1011.3
20260508020757 68 250 1.0 3.0 0.00 0.00 0.00 23 1011.3
20260508020658 68 246 0.0 3.0 0.00 0.00 0.00 23 1011.3
20260508020558 68 266 3.0 3.0 0.00 0.00 0.00 24 1011.3
20260508020459 68 254 1.0 3.0 0.00 0.00 0.00 24 1011.3
20260508020359 68 250 1.0 3.0 0.00 0.00 0.00 24 1011.3
20260508020258 68 255 2.0 3.0 0.00 0.00 0.00 23 1011.2
20260508020159 69 258 0.0 3.0 0.00 0.00 0.00 23 1011.2
20260508020000 69 258 0.0 4.0 0.00 0.00 0.00 24 1011.2
20260508015859 69 255 1.0 4.0 0.00 0.00 0.00 23 1011.2
20260508015758 69 255 0.0 4.0 0.00 0.00 0.00 23 1011.2
20260508015658 69 255 0.0 4.0 0.00 0.00 0.00 24 1011.2
20260508015458 69 253 1.0 4.0 0.00 0.00 0.00 24 1011.3
20260508015358 69 254 2.0 4.0 0.00 0.00 0.00 24 1011.2
20260508015258 69 308 2.0 4.0 0.00 0.00 0.00 23 1011.3
20260508015158 69 215 3.0 3.0 0.00 0.00 0.00 24 1011.3
20260508015058 69 253 0.0 4.0 0.00 0.00 0.00 23 1011.3
20260508014858 69 217 2.0 4.0 0.00 0.00 0.00 22 1011.3
20260508014758 69 248 2.0 4.0 0.00 0.00 0.00 22 1011.4
20260508014558 70 267 0.0 4.0 0.00 0.00 0.00 22 1011.3
20260508014458 70 267 1.0 4.0 0.00 0.00 0.00 23 1011.4
20260508014359 70 251 0.0 4.0 0.00 0.00 0.00 22 1011.4
20260508014258 70 252 1.0 4.0 0.00 0.00 0.00 23 1011.4
20260508014158 70 236 2.0 5.0 0.00 0.00 0.00 22 1011.4
20260508014058 70 221 3.0 5.0 0.00 0.00 0.00 22 1011.4
20260508013959 70 279 0.0 5.0 0.00 0.00 0.00 22 1011.4
20260508013858 70 246 3.0 5.0 0.00 0.00 0.00 22 1011.4
20260508013759 70 227 2.0 6.0 0.00 0.00 0.00 22 1011.4
20260508013658 70 238 2.0 7.0 0.00 0.00 0.00 21 1011.4
20260508013258 70 283 3.0 7.0 0.00 0.00 0.00 21 1011.4
20260508013158 70 217 2.0 7.0 0.00 0.00 0.00 21 1011.4
20260508013058 70 254 1.0 7.0 0.00 0.00 0.00 22 1011.4
20260508012958 70 226 5.0 7.0 0.00 0.00 0.00 22 1011.4
20260508012858 70 243 3.0 7.0 0.00 0.00 0.00 21 1011.4
20260508012759 70 251 3.0 7.0 0.00 0.00 0.00 21 1011.4
20260508012459 71 267 3.0 7.0 0.00 0.00 0.00 21 1011.4
20260508012158 71 209 0.0 7.0 0.00 0.00 0.00 22 1011.3
20260508012058 71 215 3.0 7.0 0.00 0.00 0.00 21 1011.4
20260508011959 71 201 3.0 7.0 0.00 0.00 0.00 21 1011.3
20260508011858 71 297 0.0 7.0 0.00 0.00 0.00 21 1011.3
20260508011758 71 235 2.0 7.0 0.00 0.00 0.00 21 1011.4
20260508011658 71 221 2.0 7.0 0.00 0.00 0.00 22 1011.3
20260508011559 71 216 3.0 7.0 0.00 0.00 0.00 20 1011.4
20260508011459 71 223 5.0 7.0 0.00 0.00 0.00 21 1011.3
20260508011358 71 220 3.0 7.0 0.00 0.00 0.00 20 1011.3
20260508011159 71 213 6.0 6.0 0.00 0.00 0.00 21 1011.4
20260508011058 71 256 3.0 7.0 0.00 0.00 0.00 21 1011.3
20260508010959 71 235 3.0 7.0 0.00 0.00 0.00 20 1011.3
20260508010900 71 267 1.0 7.0 0.00 0.00 0.00 21 1011.4
20260508010758 72 290 1.0 7.0 0.00 0.00 0.00 20 1011.4
20260508010658 72 246 3.0 8.0 0.00 0.00 0.00 20 1011.4
20260508010558 72 246 2.0 8.0 0.00 0.00 0.00 20 1011.4
20260508010459 72 261 3.0 8.0 0.00 0.00 0.00 19 1011.3
20260508010357 72 207 3.0 8.0 0.00 0.00 0.00 19 1011.4
20260508010258 72 234 2.0 8.0 0.00 0.00 0.00 20 1011.4
20260508010159 72 252 6.0 8.0 0.00 0.00 0.00 21 1011.4
20260508010058 72 262 3.0 8.0 0.00 0.00 0.00 20 1011.4
20260508010001 72 216 3.0 8.0 0.00 0.00 0.00 20 1011.4
20260508005858 72 210 2.0 8.0 0.00 0.00 0.00 20 1011.5
20260508005758 72 203 6.0 11.0 0.00 0.00 0.00 20 1011.5
20260508005658 72 229 2.0 11.0 0.00 0.00 0.00 19 1011.4
20260508005558 72 269 1.0 11.0 0.00 0.00 0.00 20 1011.4
20260508005458 72 246 1.0 11.0 0.00 0.00 0.00 20 1011.5
20260508005358 72 263 4.0 11.0 0.00 0.00 0.00 20 1011.5
20260508005259 72 277 0.0 11.0 0.00 0.00 0.00 19 1011.4
20260508005158 72 265 1.0 11.0 0.00 0.00 0.00 19 1011.5
20260508005058 72 308 4.0 11.0 0.00 0.00 0.00 20 1011.5
20260508004958 72 310 2.0 11.0 0.00 0.00 0.00 19 1011.5
20260508004858 72 315 5.0 9.0 0.00 0.00 0.00 20 1011.4
20260508004758 72 287 7.0 9.0 0.00 0.00 0.00 20 1011.4
20260508004659 72 268 4.0 7.0 0.00 0.00 0.00 21 1011.4
20260508004558 72 232 1.0 7.0 0.00 0.00 0.00 21 1011.4
20260508004459 72 222 4.0 12.0 0.00 0.00 0.00 22 1011.4
20260508004359 72 280 3.0 12.0 0.00 0.00 0.00 19 1011.4
20260508004159 72 257 2.0 12.0 0.00 0.00 0.00 20 1011.4
20260508004059 72 244 1.0 12.0 0.00 0.00 0.00 19 1011.4
20260508003958 72 259 3.0 12.0 0.00 0.00 0.00 20 1011.4
20260508003858 72 228 4.0 12.0 0.00 0.00 0.00 19 1011.4
20260508003758 72 248 5.0 12.0 0.00 0.00 0.00 20 1011.5
20260508003559 72 249 3.0 12.0 0.00 0.00 0.00 20 1011.5
20260508003458 72 215 4.0 9.0 0.00 0.00 0.00 20 1011.5
20260508003358 72 221 3.0 9.0 0.00 0.00 0.00 19 1011.5
20260508003258 72 242 2.0 9.0 0.00 0.00 0.00 21 1011.4
20260508003158 72 225 2.0 9.0 0.00 0.00 0.00 19 1011.5
20260508003106 72 226 2.0 9.0 0.00 0.00 0.00 20 1011.5
20260508002958 72 230 9.0 9.0 0.00 0.00 0.00 20 1011.5
20260508002858 72 237 6.0 9.0 0.00 0.00 0.00 20 1011.5
20260508002758 72 233 3.0 9.0 0.00 0.00 0.00 20 1011.5
20260508002558 72 235 4.0 9.0 0.00 0.00 0.00 20 1011.5
20260508002459 72 223 4.0 9.0 0.00 0.00 0.00 20 1011.5
20260508002359 72 306 6.0 9.0 0.00 0.00 0.00 20 1011.4
20260508002300 72 243 2.0 7.0 0.00 0.00 0.00 21 1011.4
20260508002159 72 202 4.0 7.0 0.00 0.00 0.00 20 1011.4
20260508002058 72 162 5.0 7.0 0.00 0.00 0.00 19 1011.4
20260508001959 72 178 2.0 7.0 0.00 0.00 0.00 21 1011.4
20260508001858 72 186 2.0 7.0 0.00 0.00 0.00 19 1011.3
20260508001758 72 161 4.0 7.0 0.00 0.00 0.00 21 1011.3
20260508001659 72 192 2.0 7.0 0.00 0.00 0.00 21 1011.3
20260508001559 72 183 4.0 8.0 0.00 0.00 0.00 20 1011.3
20260508001459 72 228 4.0 8.0 0.00 0.00 0.00 20 1011.3
20260508001359 72 198 1.0 8.0 0.00 0.00 0.00 20 1011.3
20260508001258 72 221 3.0 8.0 0.00 0.00 0.00 20 1011.3
20260508001158 72 219 3.0 8.0 0.00 0.00 0.00 19 1011.3
20260508001058 72 184 1.0 8.0 0.00 0.00 0.00 20 1011.3
20260508000958 72 120 2.0 9.0 0.00 0.00 0.00 20 1011.3
20260508000858 72 200 2.0 9.0 0.00 0.00 0.00 18 1011.3
20260508000758 72 240 0.0 9.0 0.00 0.00 0.00 20 1011.3
20260508000659 72 275 8.0 9.0 0.00 0.00 0.00 20 1011.3
20260508000559 72 193 5.0 9.0 0.00 0.00 0.00 20 1011.3
20260508000459 72 245 6.0 9.0 0.00 0.00 0.00 20 1011.3
20260508000358 72 259 4.0 9.0 0.00 0.00 0.00 18 1011.3
20260508000259 72 231 8.0 9.0 0.00 0.00 0.00 20 1011.3
20260508000158 72 169 5.0 9.0 0.00 0.00 0.00 19 1011.4
20260508000003 72 258 5.0 8.0 0.00 0.00 0.00 20 1011.5
20260507235858 73 210 3.0 8.0 0.00 0.00 0.00 19 1011.5
20260507235758 73 230 4.0 9.0 0.00 0.00 0.00 20 1011.5
20260507235657 73 240 5.0 9.0 0.00 0.00 0.00 20 1011.5
20260507235558 73 223 3.0 9.0 0.00 0.00 0.00 22 1011.5
20260507235458 72 238 4.0 9.0 0.00 0.00 0.00 21 1011.6
20260507235358 72 211 3.0 9.0 0.00 0.00 0.00 20 1011.6
20260507235159 72 140 3.0 6.0 0.00 0.00 0.00 21 1011.7
20260507235057 72 229 4.0 6.0 0.00 0.00 0.00 21 1011.7
20260507234958 72 244 2.0 6.0 0.00 0.00 0.00 21 1011.7
20260507234858 72 207 3.0 6.0 0.00 0.00 0.00 22 1011.7
20260507234759 72 233 4.0 6.0 0.00 0.00 0.00 22 1011.7
20260507234658 72 178 2.0 6.0 0.00 0.00 0.00 22 1011.7
20260507234559 72 264 1.0 7.0 0.00 0.00 0.00 19 1011.8
20260507234359 72 325 2.0 8.0 0.00 0.00 0.00 21 1011.8
20260507234258 72 280 2.0 8.0 0.00 0.00 0.00 22 1011.9
20260507234058 72 190 2.0 8.0 0.00 0.00 0.00 22 1011.9
20260507233858 72 227 1.0 8.0 0.00 0.00 0.00 21 1011.9
20260507233759 72 217 3.0 8.0 0.00 0.00 0.00 20 1011.9
20260507233658 72 192 2.0 8.0 0.00 0.00 0.00 21 1012.0
20260507233559 72 226 6.0 8.0 0.00 0.00 0.00 21 1012.0
20260507233459 72 220 4.0 7.0 0.00 0.00 0.00 21 1012.0
20260507233259 72 217 1.0 7.0 0.00 0.00 0.00 21 1011.9
20260507233158 72 211 1.0 7.0 0.00 0.00 0.00 20 1012.0
20260507233058 72 186 3.0 7.0 0.00 0.00 0.00 22 1012.1
20260507232858 72 228 4.0 7.0 0.00 0.00 0.00 21 1011.9
20260507232759 72 182 3.0 7.0 0.00 0.00 0.00 21 1012.0
20260507232500 72 251 3.0 8.0 0.00 0.00 0.00 21 1012.0
20260507232358 72 213 2.0 8.0 0.00 0.00 0.00 21 1012.0
20260507232258 72 263 3.0 8.0 0.00 0.00 0.00 22 1012.0
20260507232159 72 244 2.0 8.0 0.00 0.00 0.00 21 1012.0
20260507231958 72 204 3.0 8.0 0.00 0.00 0.00 23 1012.1
20260507231658 71 240 1.0 7.0 0.00 0.00 0.00 21 1012.1
20260507231558 71 261 3.0 7.0 0.00 0.00 0.00 21 1012.1
20260507231459 71 191 1.0 7.0 0.00 0.00 0.00 21 1012.1
20260507231359 71 140 4.0 7.0 0.00 0.00 0.00 22 1012.1
20260507231258 71 264 3.0 7.0 0.00 0.00 0.00 22 1012.1
20260507231159 71 211 2.0 7.0 0.00 0.00 0.00 22 1012.1
20260507231058 71 215 2.0 7.0 0.00 0.00 0.00 22 1012.2
20260507230958 71 213 4.0 7.0 0.00 0.00 0.00 21 1012.1
20260507230758 71 175 1.0 8.0 0.00 0.00 0.00 23 1012.1
20260507230658 71 202 3.0 8.0 0.00 0.00 0.00 20 1012.1
20260507230558 71 204 3.0 8.0 0.00 0.00 0.00 21 1012.2
20260507230459 71 240 1.0 8.0 0.00 0.00 0.00 21 1012.2
20260507230358 71 147 3.0 8.0 0.00 0.00 0.00 22 1012.2
20260507230258 71 169 4.0 8.0 0.00 0.00 0.00 21 1012.2
20260507230158 71 208 3.0 8.0 0.00 0.00 0.00 21 1012.2
20260507230058 71 215 3.0 8.0 0.00 0.00 0.00 22 1012.2
20260507230001 70 182 4.0 6.0 0.00 0.00 0.00 22 1012.2
20260507225858 70 203 4.0 6.0 0.00 0.00 0.00 22 1012.2
20260507225759 70 230 3.0 6.0 0.00 0.00 0.00 21 1012.2
20260507225658 70 181 0.0 6.0 0.00 0.00 0.00 23 1012.2
20260507225558 70 184 1.0 6.0 0.00 0.00 0.00 22 1012.3
20260507225458 70 185 3.0 6.0 0.00 0.00 0.00 21 1012.4
20260507225358 70 172 2.0 6.0 0.00 0.00 0.00 24 1012.4
20260507225258 70 263 3.0 6.0 0.00 0.00 0.00 22 1012.5
20260507225158 70 211 5.0 6.0 0.00 0.00 0.00 22 1012.5
20260507225059 70 236 2.0 6.0 0.00 0.00 0.00 22 1012.5
20260507224959 70 285 4.0 6.0 0.00 0.00 0.00 23 1012.5
20260507224758 70 219 1.0 5.0 0.00 0.00 0.00 22 1012.6
20260507224658 69 221 2.0 5.0 0.00 0.00 0.00 24 1012.6
20260507224558 69 188 3.0 5.0 0.00 0.00 0.00 24 1012.6
20260507224458 69 178 3.0 5.0 0.00 0.00 0.00 23 1012.6
20260507224400 69 242 3.0 5.0 0.00 0.00 0.00 24 1012.6
20260507224259 69 194 0.0 6.0 0.00 0.00 0.00 24 1012.6
20260507224059 69 217 2.0 6.0 0.00 0.00 0.00 24 1012.7
20260507223858 68 257 1.0 6.0 0.00 0.00 0.00 23 1012.7
20260507223757 69 264 1.0 6.0 0.00 0.00 0.00 25 1012.7
20260507223558 69 290 2.0 6.0 0.00 0.00 0.00 24 1012.7
20260507223458 69 215 1.0 6.0 0.00 0.00 0.00 24 1012.8
20260507223358 69 236 4.0 6.0 0.00 0.00 0.00 24 1012.8
20260507223258 69 269 2.0 5.0 0.00 0.00 0.00 25 1012.8
20260507223158 69 269 0.0 5.0 0.00 0.00 0.00 25 1012.8
20260507223058 69 269 1.0 5.0 0.00 0.00 0.00 24 1012.8
20260507222958 69 295 1.0 5.0 0.00 0.00 0.00 24 1012.8
20260507222858 69 248 4.0 5.0 0.00 0.00 0.00 25 1012.8
20260507222758 69 263 0.0 5.0 0.00 0.00 0.00 24 1012.9
20260507222658 69 267 1.0 5.0 0.00 0.00 0.00 23 1012.9
20260507222559 69 262 2.0 5.0 0.00 0.00 0.00 24 1012.9
20260507222458 69 321 0.0 5.0 0.00 0.00 0.00 24 1013.0
20260507222400 69 273 4.0 5.0 0.00 0.00 0.00 25 1012.9
20260507222258 69 273 3.0 4.0 0.00 0.00 0.00 22 1012.9
20260507222158 69 234 0.0 4.0 0.00 0.00 0.00 22 1012.9
20260507222058 69 237 0.0 4.0 0.00 0.00 0.00 24 1012.9
20260507221858 69 225 1.0 4.0 0.00 0.00 0.00 23 1012.9
20260507221758 69 227 1.0 4.0 0.00 0.00 0.00 23 1012.9
20260507221658 69 236 1.0 5.0 0.00 0.00 0.00 24 1012.9
20260507221558 69 227 0.0 5.0 0.00 0.00 0.00 25 1012.9
20260507221459 69 227 1.0 5.0 0.00 0.00 0.00 24 1012.9
20260507221358 69 221 2.0 5.0 0.00 0.00 0.00 23 1013.0
20260507221258 69 221 2.0 5.0 0.00 0.00 0.00 25 1012.9
20260507221159 69 256 2.0 5.0 0.00 0.00 0.00 24 1013.0
20260507221058 69 249 2.0 5.0 0.00 0.00 0.00 23 1013.0
20260507220958 69 200 1.0 5.0 0.00 0.00 0.00 22 1013.0
20260507220858 69 196 2.0 5.0 0.00 0.00 0.00 25 1013.0
20260507220658 69 180 1.0 4.0 0.00 0.00 0.00 25 1013.0
20260507220558 69 180 2.0 4.0 0.00 0.00 0.00 24 1013.0
20260507220459 69 245 0.0 4.0 0.00 0.00 0.00 23 1013.0
20260507220358 69 245 1.0 4.0 0.00 0.00 0.00 23 1013.0
20260507220158 69 251 1.0 5.0 0.00 0.00 0.00 22 1013.1
20260507220058 69 240 3.0 5.0 0.00 0.00 0.00 22 1013.1
20260507220003 69 231 2.0 5.0 0.00 0.00 0.00 24 1013.1
20260507215859 69 187 1.0 5.0 0.00 0.00 0.00 23 1013.1
20260507215801 69 177 1.0 5.0 0.00 0.00 0.00 22 1013.2
20260507215700 69 177 1.0 5.0 0.00 0.00 0.00 22 1013.2
20260507215600 69 192 1.0 5.0 0.00 0.00 0.00 23 1013.2
20260507215459 69 192 1.0 5.0 0.00 0.00 0.00 22 1013.2
20260507215400 69 202 3.0 5.0 0.00 0.00 0.00 23 1013.2
20260507215259 69 208 2.0 5.0 0.00 0.00 0.00 22 1013.2
20260507215159 69 219 5.0 5.0 0.00 0.00 0.00 22 1013.1
20260507215100 69 205 1.0 4.0 0.00 0.00 0.00 23 1013.2
20260507215001 69 230 1.0 3.0 0.00 0.00 0.00 23 1013.2
20260507214859 70 252 2.0 3.0 0.00 0.00 0.00 23 1013.2
20260507214759 70 331 2.0 3.0 0.00 0.00 0.00 22 1013.2
20260507214701 70 333 1.0 3.0 0.00 0.00 0.00 23 1013.2
20260507214600 70 285 0.0 3.0 0.00 0.00 0.00 24 1013.2
20260507214500 70 281 1.0 3.0 0.00 0.00 0.00 24 1013.2
20260507214359 70 281 1.0 3.0 0.00 0.00 0.00 22 1013.2
20260507214259 70 247 2.0 3.0 0.00 0.00 0.00 22 1013.2
20260507214159 70 234 0.0 3.0 0.00 0.00 0.00 22 1013.2
20260507214100 70 234 0.0 3.0 0.00 0.00 0.00 22 1013.3
20260507214000 70 241 2.0 3.0 0.00 0.00 0.00 21 1013.3
20260507213800 70 232 2.0 2.0 0.00 0.00 0.00 21 1013.3
20260507213600 70 279 1.0 2.0 0.00 0.00 0.00 23 1013.4
20260507213500 70 278 2.0 2.0 0.00 0.00 0.00 24 1013.4
20260507213300 70 326 0.0 4.0 0.00 0.00 0.00 24 1013.4
20260507213200 70 326 2.0 4.0 0.00 0.00 0.00 24 1013.4
20260507213059 70 326 2.0 4.0 0.00 0.00 0.00 23 1013.4
20260507213000 70 326 1.0 4.0 0.00 0.00 0.00 21 1013.4
20260507212900 70 326 2.0 4.0 0.00 0.00 0.00 25 1013.4
20260507212801 70 235 1.0 5.0 0.00 0.00 0.00 22 1013.5
20260507212700 70 222 0.0 5.0 0.00 0.00 0.00 22 1013.5
20260507212601 70 262 2.0 6.0 0.00 0.00 0.00 22 1013.5
20260507212400 70 238 2.0 6.0 0.00 0.00 0.00 23 1013.6
20260507212301 70 331 1.0 6.0 0.00 0.00 0.00 19 1013.5
20260507212200 70 331 2.0 6.0 0.00 0.00 0.00 23 1013.6
20260507212100 70 297 1.0 6.0 0.00 0.00 0.00 22 1013.6
20260507212002 70 285 1.0 7.0 0.00 0.00 0.00 22 1013.6
20260507211859 70 321 1.0 7.0 0.00 0.00 0.00 21 1013.7
20260507211800 70 267 3.0 7.0 0.00 0.00 0.00 22 1013.7
20260507211658 70 261 2.0 7.0 0.00 0.00 0.00 21 1013.6
20260507211600 70 315 2.0 7.0 0.00 0.00 0.00 23 1013.7
20260507211500 70 287 1.0 7.0 0.00 0.00 0.00 23 1013.7
20260507211359 70 332 2.0 7.0 0.00 0.00 0.00 22 1013.7
20260507211259 70 331 2.0 7.0 0.00 0.00 0.00 22 1013.7
20260507211100 70 276 6.0 7.0 0.00 0.00 0.00 22 1013.7
20260507210959 70 339 5.0 7.0 0.00 0.00 0.00 22 1013.7
20260507210859 70 298 1.0 7.0 0.00 0.00 0.00 22 1013.7
20260507210800 70 323 3.0 7.0 0.00 0.00 0.00 21 1013.7
20260507210659 70 290 3.0 7.0 0.00 0.00 0.00 21 1013.8
20260507210600 70 292 1.0 7.0 0.00 0.00 0.00 23 1013.8
20260507210400 70 296 3.0 7.0 0.00 0.00 0.00 20 1013.8
20260507210259 70 323 2.0 7.0 0.00 0.00 0.00 22 1013.8
20260507210003 70 228 2.0 7.0 0.00 0.00 0.00 21 1013.8
20260507205859 70 224 6.0 7.0 0.00 0.00 0.00 21 1013.8
20260507205800 70 245 4.0 7.0 0.00 0.00 0.00 21 1013.8
20260507205700 70 225 4.0 5.0 0.00 0.00 0.00 22 1013.8
20260507205559 70 199 3.0 10.0 0.00 0.00 0.00 21 1013.8
20260507205500 70 344 2.0 10.0 0.00 0.00 0.00 21 1013.8
20260507205359 70 336 2.0 10.0 0.00 0.00 0.00 20 1013.8
20260507205259 70 230 2.0 10.0 0.00 0.00 0.00 20 1013.9
20260507205059 70 333 2.0 10.0 0.00 0.00 0.00 22 1013.9
20260507205000 70 307 2.0 10.0 0.00 0.00 0.00 21 1013.9
20260507204859 70 335 1.0 10.0 0.00 0.00 0.00 20 1013.9
20260507204759 70 237 3.0 10.0 0.00 0.00 0.00 22 1013.9
20260507204700 70 276 3.0 10.0 0.00 0.00 0.00 22 1013.9
20260507204600 70 223 3.0 9.0 0.00 0.00 0.00 20 1013.9
20260507204500 70 288 2.0 9.0 0.00 0.00 0.00 22 1013.9
20260507204358 70 256 2.0 9.0 0.00 0.00 0.00 23 1014.0
20260507204300 70 266 2.0 9.0 0.00 0.00 0.00 22 1013.9
20260507204159 70 259 5.0 9.0 0.00 0.00 0.00 19 1014.0
20260507204058 70 217 1.0 9.0 0.00 0.00 0.00 19 1014.0
20260507204000 70 195 4.0 9.0 0.00 0.00 0.00 21 1014.0
20260507203859 70 207 2.0 9.0 0.00 0.00 0.00 21 1014.1
20260507203759 70 200 6.0 9.0 0.00 0.00 0.00 21 1014.0
20260507203700 70 253 2.0 9.0 0.00 0.00 0.00 21 1014.1
20260507203559 70 252 3.0 9.0 0.00 0.00 0.00 21 1014.0
20260507203459 70 273 3.0 9.0 0.00 0.00 0.00 22 1014.0
20260507203400 70 222 2.0 9.0 0.00 0.00 0.00 20 1014.1
20260507203259 70 223 5.0 8.0 0.00 0.00 0.00 20 1014.1
20260507203159 70 231 3.0 8.0 0.00 0.00 0.00 19 1014.1
20260507203100 70 194 4.0 8.0 0.00 0.00 0.00 18 1014.1